GFSMA_925_thetae_045.txt.gz
Theta_e
349 349 349 349 348 348 348 349 348 346 343 338 341 342 345 343 339 334 334 339 345 341 347 345 346 345 343 339 338 339 341 342 340 343 341 340 338 340 339 337 332 334 335
350 349 351 350 350 348 345 350 346 346 343 341 340 337 344 342 342 336 332 336 341 342 342 346 343 345 345 342 344 341 341 335 338 339 342 342 341 341 341 339 337 335 339
351 351 351 350 349 348 347 349 348 346 344 344 338 339 340 340 342 338 332 333 338 341 342 344 340 339 343 341 343 341 338 339 333 334 342 340 340 337 338 340 340 339 338
354 350 351 351 350 352 350 349 348 346 345 340 338 340 338 340 341 342 341 337 333 333 337 341 342 342 338 347 343 342 342 341 341 340 338 337 336 336 334 341 340 338 338
353 351 348 348 349 353 349 350 346 346 347 341 338 339 337 337 339 342 342 342 342 339 334 337 338 340 343 344 345 344 342 341 340 338 338 338 339 339 338 338 338 335 337
350 349 349 348 350 349 351 350 342 341 338 340 340 339 338 338 338 341 343 343 343 342 336 337 336 336 339 344 344 342 342 340 340 339 339 339 338 337 336 338 339 340 339
352 352 349 352 351 352 350 346 337 343 338 340 338 339 339 340 339 337 342 343 343 342 341 343 342 341 341 343 345 345 342 342 338 338 338 338 338 339 339 340 340 339 339
353 354 353 353 352 353 350 349 348 347 339 339 342 339 336 339 340 340 340 342 341 342 342 342 344 344 340 341 335 336 338 338 339 338 338 338 339 339 340 340 339 333 327
351 352 354 351 352 354 352 349 347 347 339 340 342 337 339 340 339 339 339 341 339 339 337 338 343 344 341 331 325 327 334 337 334 331 327 324 321 319 318 317 317 317 319
349 352 355 352 352 353 354 350 346 347 340 338 340 344 340 342 337 336 337 338 336 334 336 338 338 341 333 334 334 322 320 320 323 323 323 323 322 322 322 322 323 325 326
348 351 357 353 352 353 353 350 352 352 343 341 337 338 338 341 342 338 338 337 339 337 336 337 337 336 333 332 329 324 323 325 326 325 325 324 324 324 325 325 326 327 328
349 351 357 357 354 354 352 353 354 348 350 346 343 342 337 338 340 342 341 340 339 339 337 339 338 334 334 332 332 328 327 327 327 328 327 327 326 325 325 326 326 327 328
354 352 355 358 356 353 353 355 355 353 345 351 348 343 340 335 338 339 340 342 343 342 339 336 339 338 337 334 334 333 330 328 328 328 328 327 327 327 327 326 326 326 326
351 354 354 358 357 355 352 352 354 355 353 347 347 342 340 342 341 339 337 338 337 339 340 340 338 337 338 337 337 335 332 331 329 328 328 327 327 326 326 326 326 326 326
353 352 353 355 358 355 352 353 357 355 356 355 350 342 342 341 342 340 338 336 338 337 337 340 339 338 337 337 337 337 335 335 333 332 331 330 328 327 326 326 327 327 327
348 355 355 357 354 356 354 352 355 358 356 357 356 351 340 341 343 344 339 337 337 337 334 340 337 337 338 337 336 336 335 336 338 337 337 336 334 333 331 329 327 327 328
356 349 351 358 355 356 355 354 353 358 358 358 357 355 352 341 338 342 342 339 338 337 337 337 339 338 337 337 337 336 337 338 335 336 337 336 334 331 330 330 329 329 328
352 357 357 356 358 358 356 356 358 358 358 356 358 356 354 352 348 335 341 340 339 339 337 337 339 339 336 336 336 337 337 335 335 337 337 337 335 333 332 330 329 327 327
353 353 356 360 359 357 358 359 356 357 357 358 356 356 355 352 350 349 338 342 342 339 339 339 340 339 337 337 337 336 336 335 337 339 336 334 333 333 332 332 329 328 326
358 357 355 357 361 359 358 357 357 356 357 355 356 359 357 354 351 350 348 338 342 344 340 342 339 341 341 341 339 339 338 338 338 337 335 337 334 333 333 333 331 330 328
360 360 359 360 359 362 359 358 357 359 359 357 354 353 358 358 356 350 349 344 338 342 344 341 341 340 339 342 344 340 339 338 339 339 338 338 334 333 333 334 333 332 329
361 361 362 360 361 362 362 360 359 360 361 360 359 356 355 359 359 357 352 347 341 339 339 345 340 341 342 340 341 342 340 341 341 339 339 339 335 336 335 335 333 334 331
366 363 363 363 362 362 362 363 362 361 360 361 361 360 358 357 359 359 356 353 349 346 340 337 343 341 340 341 340 342 340 339 338 337 337 338 334 334 333 332 328 325 323
366 367 365 364 364 363 362 363 363 363 361 360 361 361 360 359 358 359 358 356 351 349 348 345 339 339 342 341 340 340 342 339 339 337 336 335 335 334 332 330 324 323 322
365 365 366 366 366 365 365 363 364 364 362 361 361 361 361 361 360 359 359 356 353 351 350 348 347 342 339 339 343 344 343 340 338 337 337 337 335 334 332 329 323 322 322
365 365 366 366 366 366 366 366 365 364 361 361 361 360 361 361 361 361 359 357 354 352 350 347 347 344 343 342 342 342 342 339 338 337 336 334 335 334 333 329 323 322 321

GFSMA_925_thetae_051.txt.gz
Theta_e
346 345 342 345 344 346 347 345 345 342 340 340 342 343 345 345 343 337 341 344 344 346 344 343 344 344 344 343 343 342 341 341 338 339 340 341 338 338 338 335 332 333 336
345 348 347 346 347 346 346 347 347 343 339 338 339 341 345 346 341 336 340 345 342 345 345 345 343 342 341 341 343 342 342 342 340 341 340 340 339 339 340 339 338 338 335
348 349 347 346 347 347 346 348 347 346 343 337 339 341 344 345 337 334 338 342 343 343 344 346 344 344 344 342 342 343 340 336 337 336 338 340 339 338 337 337 338 338 337
349 348 349 348 347 347 347 348 348 342 343 337 339 342 345 341 336 334 336 339 342 343 344 344 341 340 342 343 344 343 340 337 338 336 335 337 337 337 335 332 336 336 335
349 349 348 348 348 349 347 347 348 347 344 340 339 340 342 341 339 334 335 335 337 338 340 341 341 341 342 346 342 343 342 341 339 339 339 339 338 337 337 337 336 337 338
352 347 347 348 349 349 349 347 348 346 345 345 339 339 340 341 340 338 338 339 337 335 337 338 338 339 338 344 344 341 341 340 339 339 339 338 338 338 337 337 338 339 338
352 348 349 346 344 350 349 348 341 341 338 341 338 337 338 339 341 341 342 342 341 337 337 338 337 338 338 339 341 341 344 342 341 339 338 338 338 338 338 338 339 338 339
349 348 346 348 348 349 350 349 340 339 339 339 338 336 334 338 338 340 341 341 342 342 339 340 339 340 340 339 337 337 336 339 337 337 337 337 338 338 338 338 337 328 319
348 349 347 347 350 349 349 348 346 344 338 340 338 337 334 334 335 339 339 341 342 342 341 340 341 341 340 334 329 331 331 334 335 333 331 326 323 321 318 317 317 319 321
349 349 350 349 349 349 351 348 348 347 339 340 337 336 335 339 332 334 337 340 342 342 340 340 340 341 341 332 326 321 325 322 322 322 322 321 321 320 320 322 323 324 325
350 350 351 351 348 350 351 351 349 347 340 340 340 341 341 341 337 333 333 338 342 341 339 338 338 338 339 333 330 321 321 323 324 324 323 323 322 322 323 324 325 325 326
349 350 351 352 352 350 351 350 350 346 344 338 339 341 340 339 340 338 333 334 338 339 337 336 337 338 335 333 332 327 324 324 326 327 326 326 325 323 323 324 325 326 326
348 351 352 352 352 352 350 350 352 349 348 345 340 337 340 338 338 340 338 337 336 337 337 335 336 337 337 335 334 332 326 327 327 328 328 327 327 326 326 327 326 327 328
348 346 350 351 351 353 354 351 351 351 351 350 346 340 341 340 336 337 338 337 334 337 338 338 337 336 337 337 336 334 333 329 329 329 328 328 328 327 326 326 326 326 326
348 347 346 347 348 349 355 354 351 350 351 352 346 346 344 340 339 336 339 337 336 333 333 339 339 338 338 337 337 336 334 334 331 330 329 329 329 328 327 326 326 325 325
348 346 345 346 347 349 352 355 353 350 352 352 353 349 346 344 341 340 341 341 336 334 331 336 338 339 338 338 337 337 336 335 334 332 331 331 330 329 329 329 329 327 328
348 347 346 345 347 349 351 354 355 353 351 353 354 352 351 348 345 342 340 341 342 337 333 335 335 337 338 338 338 337 337 336 336 335 332 333 333 332 332 332 330 330 329
348 347 346 348 347 350 351 353 354 355 353 352 353 354 353 352 352 347 341 341 341 341 338 335 336 335 336 338 337 337 337 337 336 336 335 334 335 334 335 334 332 331 330
350 349 349 351 351 351 353 353 353 354 355 352 351 352 353 354 353 353 352 348 340 340 340 340 338 337 336 336 337 337 337 337 337 336 335 334 336 334 335 335 335 333 330
352 352 350 348 348 353 352 351 352 354 355 354 352 351 351 353 354 353 354 353 351 346 341 339 340 340 338 338 338 338 338 337 337 336 335 335 336 334 336 335 335 333 331
351 351 353 352 350 348 353 355 352 353 355 354 353 353 352 351 350 351 352 352 352 352 348 345 339 340 340 339 339 338 337 337 336 336 335 336 335 335 336 336 333 333 332
352 352 351 351 351 351 349 350 354 356 355 354 354 353 352 352 353 352 351 352 353 352 348 344 343 341 339 339 340 339 337 336 335 336 335 335 336 336 336 334 335 334 332
353 353 353 352 352 351 351 349 352 355 357 356 356 355 354 354 353 354 352 351 352 354 354 351 346 345 342 342 339 338 339 338 337 337 337 337 337 337 336 335 336 335 333
356 355 353 353 354 353 352 352 352 355 356 357 357 356 356 356 355 355 354 354 354 353 353 353 351 350 348 347 343 340 339 339 339 338 338 338 338 338 337 336 336 336 334
358 358 357 356 354 354 354 353 354 356 357 357 357 357 357 357 357 356 356 355 354 355 354 355 354 354 353 351 347 340 338 337 337 338 338 338 338 337 337 337 337 337 334
359 359 360 360 359 357 357 357 357 356 355 356 357 357 358 357 357 358 357 356 355 355 355 355 355 355 355 355 352 346 341 340 338 338 338 337 337 337 335 335 337 336 333

GFSMA_925_thetae_057.txt.gz
Theta_e
348 344 343 343 345 345 345 343 344 343 341 344 348 348 347 347 344 343 344 342 343 340 346 346 344 344 343 342 341 341 340 342 336 338 339 340 339 339 340 339 339 339 337
345 345 343 346 347 345 343 344 343 344 342 344 349 349 348 346 344 344 346 344 343 343 338 339 339 340 341 340 341 340 343 342 339 341 341 340 337 337 336 335 337 338 335
345 345 346 348 349 346 344 342 345 343 341 343 348 348 348 347 343 344 346 346 344 342 345 342 339 338 339 338 338 337 335 334 335 336 334 336 341 336 338 333 333 335 336
347 346 347 349 347 346 344 342 344 346 343 343 346 347 348 346 343 343 345 346 346 346 344 340 342 341 343 345 343 342 341 337 335 336 336 336 337 337 336 336 337 336 337
345 348 348 349 346 349 348 347 347 344 344 342 344 346 345 343 341 341 343 344 346 346 346 343 341 339 338 345 340 341 341 340 340 340 338 338 338 337 337 337 336 337 339
347 347 348 347 347 346 345 346 346 347 345 341 342 343 344 344 343 342 343 343 343 344 344 345 346 345 339 341 345 344 341 340 341 340 339 339 339 338 338 338 338 338 338
347 348 348 347 347 345 343 345 346 345 346 339 340 342 342 343 344 343 343 343 343 343 343 344 344 344 343 338 338 340 341 342 341 340 338 337 337 337 337 338 338 338 335
348 349 347 348 347 347 345 346 342 342 343 341 342 342 343 342 341 342 344 344 344 344 344 343 343 344 343 343 341 337 338 337 336 337 337 336 336 336 336 336 335 322 318
348 349 348 348 345 346 346 348 342 341 343 344 339 342 343 341 342 341 343 343 345 345 345 344 344 343 341 343 339 332 328 331 333 331 328 326 324 321 320 318 318 320 323
348 349 349 347 348 349 347 349 346 344 340 343 341 338 336 342 340 342 342 342 344 344 345 344 342 343 340 343 335 324 323 327 325 324 322 321 320 320 320 321 322 323 324
348 349 349 349 349 348 347 348 347 346 344 343 342 342 344 343 339 340 341 342 342 343 344 343 341 342 343 342 340 334 324 324 325 325 324 323 321 321 322 322 323 324 325
349 348 349 349 350 351 348 349 348 348 346 344 343 343 342 341 342 342 342 342 341 342 342 343 341 341 341 342 338 333 328 326 326 326 326 325 324 323 322 323 324 324 325
350 349 347 349 351 350 350 349 349 350 349 346 338 342 343 343 342 343 342 342 342 342 342 341 341 340 341 341 342 336 334 330 327 328 328 327 327 326 326 325 326 326 328
347 349 345 346 348 349 350 351 353 353 352 350 345 345 343 342 341 342 342 342 343 343 343 344 343 340 338 339 340 337 337 335 334 330 329 329 328 328 327 327 327 327 327
346 346 341 343 345 347 349 351 354 353 351 351 352 349 348 347 344 343 342 340 341 343 343 342 341 340 338 338 338 337 337 337 336 335 334 330 329 329 329 328 328 327 327
343 344 340 344 346 346 348 351 354 355 355 353 353 354 353 351 349 347 344 342 341 341 343 341 340 341 339 338 336 337 338 337 337 337 336 335 333 331 330 330 329 329 329
344 342 340 342 346 348 349 351 351 355 357 356 356 354 353 352 352 352 348 347 345 343 342 341 342 341 339 338 338 336 336 335 338 337 337 337 336 335 332 331 330 330 330
344 344 343 343 346 348 349 352 352 352 355 356 357 357 355 354 355 355 353 352 349 348 345 346 343 343 342 341 339 339 338 340 339 338 336 336 337 336 336 334 332 331 331
344 345 345 344 344 348 350 351 349 353 354 355 357 358 357 357 356 354 355 353 352 352 350 347 347 345 344 343 342 340 339 341 341 339 337 336 335 336 336 336 335 333 333
345 346 345 345 347 347 350 352 353 353 354 355 356 357 357 357 357 357 356 356 355 354 352 352 350 349 348 348 345 344 343 343 343 341 340 338 338 337 336 336 336 335 334
347 346 347 348 348 350 348 350 352 353 355 355 356 356 357 355 353 354 356 355 355 355 353 351 350 349 348 347 347 346 346 345 344 344 344 343 342 340 338 337 336 336 335
350 351 351 351 351 350 348 346 346 352 355 356 356 356 355 352 348 349 350 352 354 356 356 355 353 353 354 353 352 351 350 350 350 349 347 344 343 342 341 339 337 337 336
352 351 351 351 351 350 348 346 343 347 350 352 353 355 356 354 354 354 355 352 351 352 352 353 356 357 357 356 355 355 354 353 353 352 350 348 348 345 341 341 340 338 337
353 354 354 353 353 351 348 347 346 345 349 351 351 352 352 353 354 355 355 356 357 357 355 353 351 352 355 356 356 357 357 356 354 353 351 348 348 349 346 342 340 338 338
352 352 353 354 354 353 350 348 349 350 351 352 352 352 352 353 352 351 353 354 355 355 355 355 355 355 354 354 354 353 351 351 350 350 351 349 346 346 345 345 342 340 338
354 354 353 353 354 354 351 349 349 351 352 352 353 353 353 353 353 353 353 354 357 357 358 359 360 359 358 357 357 356 352 349 350 351 352 349 346 344 345 344 343 342 339

GFSMA_925_thetae_060.txt.gz
Theta_e
350 348 348 349 348 349 347 347 346 346 347 349 348 347 345 344 344 341 342 342 339 345 346 345 346 344 343 341 341 343 343 341 335 338 339 340 339 338 338 337 339 339 336
351 349 350 349 348 349 347 346 345 343 344 345 348 348 346 345 344 345 342 344 343 341 339 344 342 342 342 341 341 338 343 342 339 342 342 340 338 337 338 337 340 339 338
353 351 350 350 349 350 350 349 348 346 339 342 346 347 347 345 344 345 346 346 345 341 342 342 339 338 339 340 340 338 336 335 333 334 333 333 340 338 337 336 336 337 338
353 351 349 350 351 350 347 346 340 342 340 341 344 343 345 344 344 345 345 345 345 347 344 340 342 342 343 346 345 345 345 342 338 338 339 339 339 339 338 338 337 336 338
354 353 351 351 348 350 346 346 345 344 341 342 342 344 344 343 343 343 344 345 345 345 344 343 339 338 337 343 344 342 341 339 339 339 339 339 339 338 338 338 338 338 339
353 354 353 352 350 347 347 347 347 345 344 344 340 343 342 343 342 342 343 341 342 345 345 346 346 347 338 337 342 343 343 341 342 341 340 340 339 339 339 338 338 339 338
354 355 352 352 351 348 347 350 350 349 341 338 343 342 342 343 345 342 341 341 341 341 341 342 343 342 345 341 339 338 339 339 342 340 339 336 336 336 337 338 338 337 322
355 354 354 353 350 349 350 351 349 345 345 342 344 340 342 341 341 339 340 342 342 342 343 343 342 343 343 340 340 329 334 333 334 335 335 334 332 330 331 332 328 318 319
355 355 355 354 350 349 350 350 348 345 344 345 346 344 341 344 337 337 342 342 344 343 343 344 343 342 343 341 338 334 324 327 330 329 327 325 322 321 321 319 318 320 323
355 356 356 355 353 350 352 349 348 346 346 343 343 341 344 344 339 341 340 342 343 344 345 344 342 344 343 342 339 331 324 323 324 324 323 321 320 319 319 320 321 322 324
356 355 357 357 353 351 352 352 351 349 343 342 342 340 342 340 341 342 343 342 342 342 342 343 342 342 343 343 342 342 327 325 326 325 324 323 321 320 321 322 322 323 324
353 356 357 357 357 353 352 352 352 353 350 348 344 343 339 340 341 341 342 343 342 342 342 342 342 342 342 343 343 340 335 330 330 328 327 326 325 324 322 322 323 324 325
349 351 356 358 356 357 356 353 353 354 353 351 350 343 342 343 342 342 342 342 342 342 342 342 341 343 343 343 343 342 339 333 331 330 330 329 328 327 326 325 325 326 327
347 349 355 355 356 356 357 356 354 353 354 353 353 350 345 343 343 342 342 342 342 341 342 345 343 343 343 344 344 344 342 340 336 334 331 330 331 330 329 328 327 327 327
347 348 351 355 354 354 356 356 354 356 356 354 354 353 350 344 344 342 343 343 342 345 344 345 343 344 343 343 344 344 345 345 342 338 336 334 332 331 330 330 329 328 328
351 348 350 351 351 352 355 357 355 356 358 356 353 354 355 349 348 347 346 344 342 342 344 340 341 342 344 344 341 342 344 344 344 339 338 337 336 335 333 331 330 330 330
351 353 351 350 349 353 355 356 356 354 357 358 356 355 356 356 352 349 348 346 345 344 344 341 341 342 347 349 347 346 346 346 344 342 340 337 337 337 336 335 333 332 330
353 354 353 352 349 350 353 356 356 352 355 356 357 357 357 354 356 355 352 350 346 346 346 349 345 344 343 343 345 348 348 344 341 341 341 341 338 336 337 337 336 335 333
355 354 354 353 352 350 353 355 355 355 354 354 356 357 357 358 358 355 354 352 351 353 353 353 351 348 347 347 348 349 348 347 346 344 343 342 341 339 337 336 336 336 336
355 355 354 354 353 351 349 352 353 355 354 354 356 356 358 358 359 360 360 359 358 357 352 351 349 348 347 345 345 347 348 347 345 345 344 344 343 342 341 341 338 336 336
355 356 355 354 354 353 349 349 351 351 354 355 355 357 358 358 359 360 358 358 358 357 354 351 349 348 347 347 348 347 350 350 350 351 351 350 350 349 348 346 344 341 338
356 356 356 355 354 353 349 347 348 349 350 354 355 356 357 357 358 357 355 351 352 359 361 358 353 352 356 356 354 355 354 354 357 353 354 354 354 353 353 352 350 347 344
356 357 356 355 355 355 352 349 347 347 347 350 353 355 355 351 354 356 356 356 354 353 353 354 358 359 358 359 360 362 359 360 360 359 359 358 357 358 356 355 354 351 347
357 357 357 356 356 356 354 352 350 349 349 350 351 352 354 353 352 353 355 356 356 356 357 357 355 355 356 356 358 360 360 360 359 359 358 359 357 357 356 355 353 351 349
358 358 357 357 357 357 355 352 352 351 351 352 352 352 353 354 354 353 354 353 354 353 350 351 352 353 355 356 357 356 355 356 358 357 358 358 358 358 356 355 352 351 350
358 358 358 358 359 359 358 355 353 352 352 352 353 355 354 353 353 354 354 354 356 354 354 356 359 362 363 362 362 359 358 358 359 357 359 356 356 355 353 350 349 347 348

GFSMA_925_thetae_063.txt.gz
Theta_e
348 348 347 347 348 346 344 343 344 346 347 347 347 345 343 341 341 342 342 337 341 345 348 346 346 346 345 344 345 345 344 340 338 340 344 341 338 339 340 342 341 342 340
349 348 348 347 348 346 347 347 345 344 345 346 346 346 344 344 345 345 343 343 335 334 335 340 346 347 344 345 345 342 344 342 342 340 340 337 340 338 340 335 337 338 338
353 351 349 347 348 348 349 346 342 340 341 344 343 346 343 344 345 346 345 346 344 337 334 335 334 335 338 341 341 338 336 335 332 333 334 333 335 338 339 340 340 338 339
353 350 349 349 347 347 346 346 343 344 339 342 344 344 343 343 344 344 345 346 347 349 342 339 339 340 341 346 346 344 345 344 340 337 339 339 341 341 339 339 338 337 339
354 353 350 352 348 350 345 345 340 343 341 339 340 341 343 341 344 344 343 345 345 345 348 339 336 336 336 341 346 341 344 340 339 339 339 340 340 340 339 339 338 338 339
354 354 352 352 350 346 346 346 344 345 346 342 344 342 343 341 340 342 341 341 342 343 345 347 347 345 338 334 337 343 343 342 340 342 340 339 339 339 339 338 338 339 337
354 356 353 353 352 349 350 346 346 345 340 336 342 340 340 340 341 340 339 340 339 340 340 343 343 345 346 341 341 334 337 341 343 341 340 338 337 337 337 337 337 334 318
355 354 354 354 352 349 350 350 350 346 342 341 340 343 345 342 342 340 338 339 341 341 342 343 342 342 341 344 344 333 326 332 334 335 335 334 333 332 330 331 329 318 319
355 355 356 352 353 352 350 351 351 348 345 343 345 342 349 349 338 336 338 340 344 343 343 343 343 342 343 344 340 339 331 323 327 327 326 325 324 323 322 320 318 319 322
354 356 357 356 353 352 351 351 349 348 346 343 340 342 340 342 349 341 340 341 343 343 344 344 344 344 343 344 342 337 335 323 324 324 323 322 320 320 319 319 320 321 323
355 354 357 355 356 352 352 352 353 351 344 347 340 339 340 336 342 345 347 343 342 342 343 345 342 342 346 343 342 343 337 329 327 327 326 324 322 320 320 320 321 322 323
354 354 355 356 356 354 355 354 353 353 352 346 346 341 337 340 340 342 342 344 343 343 342 342 342 341 342 344 344 342 341 336 333 332 329 328 327 325 323 322 322 323 324
347 351 354 357 357 357 356 355 355 355 354 351 350 342 341 342 343 342 342 342 342 342 341 341 341 343 343 344 344 344 343 339 334 333 332 331 330 328 327 326 325 325 325
346 353 357 355 356 358 355 356 355 355 354 354 354 350 348 343 343 343 343 343 343 341 342 342 343 344 344 344 345 344 345 344 342 338 334 332 331 331 330 330 329 328 327
347 347 351 356 354 353 356 355 354 356 353 356 354 354 351 346 343 343 342 343 342 346 345 350 345 345 345 344 345 346 345 346 345 344 342 338 334 332 331 331 331 331 330
349 350 349 351 354 354 353 356 353 354 357 355 352 353 352 347 346 346 344 343 344 343 346 342 343 343 343 344 344 345 345 344 345 345 344 342 341 338 335 333 331 331 331
353 352 352 352 352 353 353 356 354 355 357 356 356 353 354 352 353 348 347 346 346 345 344 343 342 342 345 348 349 349 348 348 347 346 345 343 342 340 338 337 335 333 331
355 355 356 354 353 351 352 356 356 353 356 356 357 356 355 354 355 355 355 352 348 347 347 350 347 347 347 348 347 348 350 351 348 347 346 344 343 343 342 341 340 338 336
357 356 356 357 355 352 352 356 357 356 355 355 355 355 356 356 357 355 355 351 350 352 353 353 354 352 351 349 349 349 350 352 353 350 347 345 345 343 343 342 342 342 340
358 358 357 357 357 355 352 352 355 357 356 355 355 355 356 357 358 359 359 359 358 357 353 353 352 351 350 349 348 348 349 348 349 349 349 350 350 350 350 349 347 347 346
358 359 359 358 358 356 354 352 353 355 357 356 355 355 355 356 356 358 359 358 358 358 356 354 353 352 350 349 351 352 351 353 354 353 354 354 352 354 355 354 354 353 351
359 360 360 360 359 355 352 351 350 351 353 354 356 357 356 356 357 356 357 358 357 358 362 357 354 352 354 354 354 355 358 358 362 357 357 361 360 359 359 359 359 357 357
360 361 361 361 361 359 353 351 349 348 351 353 354 356 357 352 354 358 359 358 357 355 354 353 357 358 358 358 359 362 358 359 362 362 361 363 360 360 358 359 359 358 356
361 362 362 361 362 361 357 353 352 349 349 349 352 354 355 354 354 356 358 357 357 358 359 358 357 356 357 357 358 359 360 359 360 361 360 362 360 360 361 360 359 358 354
363 362 363 363 363 361 358 354 354 352 352 353 353 352 353 356 358 356 352 353 354 355 351 350 349 350 351 352 353 354 355 358 362 360 359 360 360 361 358 358 354 353 350
364 361 362 363 363 363 361 358 355 355 354 354 355 356 355 354 354 354 356 357 358 358 357 355 355 357 359 363 364 363 360 361 362 362 361 360 360 357 355 355 352 350 349

GFSMA_925_thetae_069.txt.gz
Theta_e
346 347 348 342 345 346 346 346 345 345 346 344 344 345 344 340 330 335 337 337 338 345 347 346 340 342 342 344 342 343 342 337 339 343 342 338 339 336 340 336 339 338 339
349 347 345 345 346 347 347 347 346 344 342 344 344 345 344 344 335 328 328 330 340 339 343 343 342 340 341 340 339 339 344 339 337 335 332 332 336 337 339 339 338 337 338
350 349 348 346 344 345 344 346 348 346 344 344 344 343 346 345 344 343 338 331 331 331 332 337 341 334 331 333 334 335 336 334 333 332 333 335 337 340 339 338 338 338 339
347 349 346 345 349 349 344 344 345 346 345 345 343 344 345 344 345 345 345 345 344 339 334 332 331 331 333 333 335 337 339 342 341 340 340 341 340 339 341 338 338 337 338
352 347 347 349 345 346 344 343 342 344 345 345 341 344 344 343 344 344 344 345 346 346 340 337 336 336 336 337 341 341 341 339 338 338 339 339 339 341 340 339 337 337 338
349 350 347 350 345 346 347 343 344 343 343 342 344 343 344 343 344 342 345 345 344 343 346 344 341 342 337 336 336 339 340 341 339 338 342 338 336 335 336 336 336 337 336
351 341 349 351 350 345 345 345 348 341 341 342 343 343 342 343 341 343 345 344 344 344 345 346 345 346 346 340 340 334 332 335 335 335 333 332 332 331 331 331 332 333 328
353 350 350 351 349 347 349 348 345 342 339 338 344 344 339 340 342 343 343 343 341 342 343 344 343 344 344 345 344 336 325 325 328 328 328 327 326 324 323 323 325 325 320
355 354 352 352 350 349 349 349 344 342 341 341 343 343 340 339 344 339 339 340 340 341 341 342 342 342 340 341 344 340 338 323 323 324 324 323 321 320 320 320 320 320 318
352 353 351 351 349 350 350 350 348 348 345 345 346 343 344 342 344 336 338 340 341 343 344 343 342 343 342 339 343 343 340 330 326 326 325 323 323 321 320 319 319 319 318
353 354 354 353 349 351 349 347 349 351 351 346 349 343 344 340 340 342 343 345 342 342 343 343 343 344 343 342 342 343 342 340 337 330 329 328 327 326 324 322 320 320 320
354 355 355 354 348 349 352 350 353 350 349 348 348 349 342 337 342 343 345 345 343 343 343 344 342 343 343 344 342 342 343 342 341 338 333 332 331 330 328 327 325 323 322
354 354 356 355 351 350 353 351 352 349 352 349 348 350 347 348 351 344 344 346 343 344 344 344 343 341 341 342 343 343 343 343 342 343 343 341 337 334 333 332 331 329 327
353 351 356 354 351 350 352 352 352 349 354 351 347 349 346 345 348 345 343 343 340 344 344 342 341 341 342 343 343 343 344 344 343 343 343 343 343 342 340 337 334 332 331
354 350 352 355 351 351 349 354 352 350 350 354 353 347 345 343 347 346 345 342 343 341 340 345 345 345 342 343 344 344 344 344 344 344 345 345 345 344 344 344 342 340 335
350 352 353 352 353 352 353 353 352 352 352 351 352 350 347 338 340 345 349 342 344 344 342 344 343 343 349 346 346 345 345 345 345 345 345 347 347 346 347 346 345 344 343
349 349 354 352 357 357 354 355 354 353 354 352 351 352 355 351 345 346 351 350 347 346 346 345 345 346 345 344 343 344 348 349 349 349 349 349 349 349 348 348 347 346 344
350 356 355 354 354 353 354 357 356 353 355 355 352 353 354 355 351 351 349 350 352 353 353 351 349 346 347 355 353 353 351 351 351 350 350 350 351 351 351 352 351 350 348
348 350 355 355 355 355 354 352 354 354 352 355 355 353 350 354 357 355 353 353 352 354 356 359 357 356 355 350 350 352 354 352 351 353 353 355 355 354 354 358 360 359 360
351 349 350 357 352 353 352 352 354 354 352 353 355 358 357 358 355 354 355 356 355 354 353 354 354 355 357 355 356 354 354 353 354 352 350 347 348 355 358 358 360 360 358
349 356 355 353 358 355 354 354 352 353 353 355 352 352 357 357 354 355 357 357 357 357 358 358 359 360 360 358 356 353 354 354 349 350 353 355 358 359 359 359 360 359 360
358 353 353 355 355 357 356 355 353 353 357 358 357 355 354 356 356 355 355 355 358 360 361 362 361 358 357 355 351 351 352 353 356 354 356 358 359 359 360 361 361 362 359
351 359 358 356 356 355 358 358 357 354 351 352 356 357 356 354 355 357 357 356 354 354 354 355 355 355 355 353 353 354 355 356 357 356 359 359 357 361 361 360 361 356 352
354 353 355 357 359 358 357 359 358 357 355 353 350 355 357 356 355 354 355 356 354 353 353 354 355 355 356 356 357 356 354 357 358 357 357 356 360 361 359 359 354 353 352
358 356 358 359 360 360 359 358 360 357 354 354 353 351 351 351 351 353 354 355 356 359 361 361 362 360 355 352 354 354 356 358 356 353 358 360 361 359 358 356 353 349 343
357 359 358 359 360 360 360 360 359 359 357 353 352 353 352 352 352 354 356 355 353 354 352 349 351 353 354 356 359 358 357 355 352 357 361 360 360 359 358 353 353 347 341

GFSMA_925_thetae_072.txt.gz
Theta_e
346 346 345 343 343 345 344 344 344 345 344 344 345 344 345 339 337 340 342 339 341 340 343 345 345 341 340 342 341 343 339 337 339 342 338 335 339 338 340 338 339 339 340
346 346 346 342 344 344 344 344 345 344 344 345 344 344 341 332 332 332 332 335 337 338 340 340 339 339 340 342 339 339 341 337 336 335 333 332 333 337 339 339 338 339 339
345 344 346 344 345 343 345 345 345 343 344 345 344 343 343 336 333 330 330 331 331 330 333 335 339 335 335 336 336 334 334 333 332 332 334 336 337 338 340 340 338 338 339
349 346 347 344 345 344 344 347 346 345 343 345 344 345 344 343 341 342 336 336 335 333 332 331 331 333 334 335 336 336 336 340 341 339 339 339 340 341 340 341 339 338 338
348 347 344 347 347 345 343 341 345 344 344 345 344 344 344 343 344 343 344 344 344 339 338 335 335 335 334 338 342 342 341 343 339 338 337 338 338 338 338 338 337 337 337
348 346 346 346 344 347 345 344 345 343 344 343 342 343 344 344 344 343 343 344 344 345 344 342 340 342 339 337 335 337 339 339 339 338 338 341 338 335 334 334 335 335 334
347 349 347 347 346 345 344 344 344 343 344 343 344 343 344 344 343 343 343 344 344 344 344 345 343 343 344 342 341 336 331 333 334 332 331 331 329 328 328 330 331 332 331
347 346 347 346 347 344 347 346 343 340 340 342 344 342 337 340 342 341 342 343 343 343 344 344 344 344 345 344 344 342 332 323 324 325 326 325 325 324 323 323 325 326 326
352 350 347 346 350 345 347 346 343 339 339 337 343 343 336 336 341 341 342 343 342 341 342 342 343 342 341 339 343 342 339 331 324 324 324 323 323 322 321 320 320 322 322
353 352 350 350 349 348 347 347 345 343 340 342 343 343 343 341 340 332 337 341 342 341 342 342 342 342 342 341 339 343 342 336 331 328 327 326 325 325 324 322 320 320 319
354 351 350 351 349 349 350 349 350 349 347 344 347 343 343 343 341 340 337 339 340 341 343 343 343 342 343 343 342 342 342 341 341 340 335 332 330 329 328 327 326 323 321
352 352 351 350 348 349 348 346 349 349 350 347 349 349 344 338 341 342 341 341 342 342 342 342 343 342 343 343 342 342 342 343 343 342 342 341 338 334 333 332 330 329 327
353 354 354 353 347 347 350 349 352 351 348 348 347 349 348 347 349 345 343 344 342 343 343 342 343 343 341 341 342 342 342 343 343 344 343 342 342 342 341 338 335 333 331
351 353 355 355 352 345 349 351 351 350 348 348 348 349 348 344 347 347 345 341 337 340 342 344 341 343 343 341 341 342 343 343 344 344 344 343 343 343 343 343 342 340 338
350 351 354 356 354 350 349 351 351 351 350 350 346 348 346 343 344 345 349 343 341 338 336 343 343 342 347 345 341 342 343 344 344 344 344 346 346 346 346 346 345 344 344
350 351 352 355 354 350 348 350 350 349 350 349 348 347 347 342 340 340 348 347 344 343 338 343 343 344 345 346 345 345 344 344 346 348 349 349 349 349 349 349 349 349 349
353 353 353 350 355 352 349 350 350 351 351 351 350 351 349 351 346 347 343 349 352 351 346 346 345 345 347 345 351 354 352 352 351 352 351 351 351 353 353 353 353 353 355
352 351 349 352 353 352 351 352 351 352 352 353 352 351 350 353 354 352 349 349 348 350 352 351 349 352 353 352 352 350 353 354 352 350 354 353 352 352 352 356 359 358 359
350 353 349 350 354 351 354 354 353 353 353 352 354 354 351 350 352 355 353 354 352 352 354 357 358 355 353 351 354 356 357 353 347 346 347 346 352 355 357 358 358 359 360
346 349 353 353 352 352 354 355 354 355 355 354 353 353 354 353 350 351 353 354 353 355 355 354 353 352 353 356 359 358 356 355 348 347 348 350 354 356 358 359 359 360 358
345 345 348 352 355 355 354 353 352 351 351 351 352 352 353 357 357 356 357 355 355 356 356 356 356 357 359 360 360 358 354 350 352 352 351 353 355 357 359 359 360 361 358
344 346 343 347 350 354 353 353 352 352 351 351 350 350 353 353 353 354 356 356 356 355 355 357 358 358 359 358 353 352 353 353 353 352 354 355 357 357 359 358 360 358 352
343 347 350 348 355 353 354 354 353 352 352 351 350 351 354 352 352 354 354 356 356 356 356 355 358 357 356 353 353 353 354 354 353 354 356 358 357 358 359 358 358 352 350
348 346 350 351 351 354 355 355 354 354 354 353 352 351 352 352 351 353 353 352 352 352 352 354 354 353 353 353 355 357 356 354 355 355 356 356 358 359 359 358 354 351 343
353 349 348 353 356 354 352 351 352 355 356 356 355 354 353 350 349 350 355 355 354 352 349 351 353 356 356 359 359 354 355 354 354 355 356 354 360 359 359 356 352 350 346
355 354 352 350 351 355 357 356 355 355 357 356 356 355 354 353 352 351 352 352 354 352 352 351 351 351 352 353 355 355 357 355 353 353 360 361 360 360 359 354 353 350 342

GFSMA_925_thetae_078.txt.gz
Theta_e
338 341 342 343 343 342 342 342 343 343 344 344 344 344 344 341 338 339 340 343 341 345 346 344 342 338 341 339 340 342 340 336 334 336 333 331 333 335 338 338 338 337 339
342 342 340 340 342 344 344 344 343 344 344 344 344 345 345 340 336 338 336 339 341 341 343 344 343 343 341 343 339 338 340 339 333 332 332 334 336 337 339 340 340 337 336
345 345 344 342 343 344 343 344 344 343 344 344 343 344 344 335 335 335 335 338 340 341 343 344 344 339 338 339 340 340 336 333 336 339 339 339 340 341 342 339 340 337 336
345 344 343 342 343 342 344 344 344 344 343 343 343 344 341 334 335 334 334 335 336 334 335 337 338 339 337 340 341 341 340 339 340 341 341 341 340 338 336 338 338 335 335
346 344 344 344 343 343 343 344 344 343 343 343 343 343 342 341 338 339 338 338 339 338 337 336 336 337 338 344 345 342 341 341 343 343 339 337 336 337 335 332 332 332 332
345 345 345 344 343 341 342 341 344 343 343 344 343 344 343 343 342 343 342 342 342 342 342 341 340 340 339 340 339 340 341 339 335 335 333 332 332 331 330 329 328 328 328
345 346 344 345 345 343 342 341 343 343 343 342 343 342 341 342 343 342 343 343 342 343 343 343 344 344 343 342 342 342 341 338 330 325 326 328 329 328 327 325 323 323 324
347 346 345 346 343 345 344 343 344 342 342 343 342 340 341 338 340 342 342 341 342 342 342 342 342 342 343 342 340 341 341 339 336 331 326 326 326 326 326 325 323 321 321
348 346 346 345 346 345 343 343 342 341 341 342 342 340 340 341 336 340 340 340 340 341 341 341 341 341 342 342 341 338 339 341 341 339 335 331 329 328 328 327 326 324 323
350 346 347 346 346 346 344 344 343 339 338 339 341 342 342 340 343 343 336 336 338 339 340 340 341 341 342 342 342 342 341 341 341 342 342 341 340 337 334 333 331 330 329
351 348 348 346 346 347 345 346 345 343 341 339 340 342 341 341 341 337 343 339 339 339 339 340 341 342 342 342 341 342 342 342 342 342 342 342 342 342 342 341 340 337 336
350 351 349 349 348 346 347 345 345 345 345 342 344 346 345 340 342 341 340 340 340 340 341 341 341 341 341 342 341 341 341 341 341 342 342 342 343 343 343 343 343 343 341
349 351 352 352 349 348 348 348 347 347 347 346 345 347 346 346 347 344 341 340 340 341 342 342 342 341 341 343 344 343 342 341 341 342 343 345 348 349 350 350 350 348 344
348 349 350 351 351 350 349 348 348 346 348 348 347 346 346 347 345 346 347 339 342 337 339 341 342 342 344 345 344 344 345 346 349 349 351 351 350 349 348 347 351 353 352
348 349 349 350 351 350 349 348 347 347 349 349 347 347 347 346 346 345 344 347 339 345 343 340 342 342 343 345 346 347 349 350 349 354 352 349 344 347 349 352 351 353 357
349 349 349 351 350 350 350 350 347 350 350 350 349 349 349 346 346 345 343 345 346 341 345 341 343 344 347 348 350 349 347 346 353 354 352 344 349 347 353 355 356 357 358
346 350 350 351 350 349 347 350 351 348 350 350 350 348 347 348 348 347 347 347 347 348 347 349 348 348 348 351 349 347 346 351 353 350 344 351 347 351 352 355 357 358 358
344 346 351 352 351 350 350 350 351 351 348 349 349 349 348 348 349 348 352 352 351 348 349 348 349 350 349 347 348 348 348 349 347 349 351 350 348 351 355 357 358 359 359
343 344 345 350 352 351 351 352 352 352 350 348 349 350 350 351 352 350 349 349 352 351 351 350 351 352 352 350 350 350 347 347 349 350 351 349 349 354 357 357 357 357 358
340 342 344 345 348 350 352 351 350 351 351 349 348 349 350 351 351 350 352 352 351 350 352 353 353 353 353 352 351 350 351 350 350 352 352 351 351 355 357 358 358 357 357
340 340 341 343 344 345 349 350 349 351 351 350 350 350 350 351 351 351 350 351 354 354 354 355 354 353 353 353 353 353 353 352 352 354 355 351 354 356 357 358 358 357 355
342 340 339 341 342 344 345 348 350 350 352 351 350 351 351 350 350 349 349 349 349 352 354 355 354 354 354 353 353 353 352 351 353 353 354 351 355 356 357 358 358 356 351
344 343 341 339 340 341 342 344 346 351 352 351 351 351 351 350 350 349 349 348 347 350 351 352 354 354 354 353 353 352 352 351 352 353 352 354 354 355 357 356 356 355 351
343 344 344 343 341 338 337 339 342 345 350 352 352 352 351 351 350 350 349 350 349 348 349 350 351 351 351 350 351 351 352 352 352 352 352 355 355 356 356 355 354 353 351
345 344 344 344 344 343 342 337 338 342 344 345 344 346 349 350 350 350 351 350 351 349 348 348 348 349 349 348 349 351 351 351 352 352 352 354 356 358 357 357 355 349 346
348 346 345 345 346 347 346 345 344 344 345 345 344 343 345 349 349 350 351 349 351 350 350 350 350 350 350 349 349 350 350 351 352 354 354 354 356 357 361 355 353 349 343

GFSMA_925_thetae_084.txt.gz
Theta_e
346 344 345 345 346 346 347 348 349 350 349 348 348 345 340 340 341 341 341 338 342 344 343 344 343 338 340 342 336 337 343 338 337 339 339 338 338 340 343 341 341 339 335
347 347 348 348 348 348 348 349 350 349 347 347 349 347 345 344 343 343 340 342 333 336 337 341 339 338 343 344 344 343 340 337 338 340 340 341 341 341 338 341 341 340 335
351 349 348 348 348 350 351 350 350 348 346 346 349 348 345 345 346 346 345 345 347 342 333 334 336 337 337 337 341 345 344 342 341 340 342 341 338 337 336 334 335 335 334
352 352 349 347 349 350 349 348 348 346 346 346 347 346 345 344 345 346 345 346 345 344 346 340 338 339 339 342 345 343 340 338 337 340 340 340 335 333 332 333 331 330 330
351 350 349 349 350 349 348 347 348 346 346 345 345 345 345 345 345 343 346 346 345 345 344 345 343 341 340 341 341 341 340 338 336 332 330 331 330 329 328 327 326 325 325
349 351 351 351 349 348 348 348 348 347 347 346 344 344 344 345 345 345 345 344 345 347 346 348 347 346 343 342 341 341 340 339 337 335 332 328 327 328 328 327 326 325 324
352 353 350 349 350 348 350 350 350 349 345 347 345 343 341 342 344 343 343 343 345 346 347 348 349 346 345 345 343 339 339 339 340 340 340 339 336 334 333 332 331 329 328
351 352 350 348 349 349 352 352 351 346 345 346 343 340 341 342 341 340 341 342 343 344 344 346 347 349 349 346 345 340 339 340 340 341 341 342 342 342 342 342 340 338 335
352 353 349 351 352 351 348 352 350 349 345 347 349 346 345 344 343 342 343 340 343 342 343 345 345 347 349 348 348 347 344 341 342 342 342 342 342 342 342 343 343 343 342
353 354 354 353 354 350 350 352 349 348 349 342 346 345 348 348 346 345 343 342 341 341 343 343 342 344 347 347 346 345 341 341 341 341 341 342 345 348 350 350 350 350 348
353 352 353 354 354 352 353 351 352 350 344 344 343 344 348 346 350 347 345 343 341 341 343 344 344 344 347 348 348 348 344 343 344 347 349 351 350 346 344 344 346 348 348
353 355 354 355 354 352 353 352 353 353 351 349 346 346 346 344 346 346 345 344 344 343 344 345 345 346 347 349 348 345 346 348 349 348 352 352 350 346 347 346 351 355 354
351 355 356 355 352 350 353 353 351 351 352 350 351 345 346 346 347 349 347 345 345 344 344 345 347 348 348 349 350 346 352 349 346 348 353 352 348 348 347 348 352 353 356
351 352 355 353 353 353 353 353 350 349 350 350 352 352 347 348 348 348 348 347 346 345 346 347 345 346 346 349 351 349 352 353 346 351 348 347 350 348 347 350 351 354 357
351 354 355 351 352 353 353 355 351 353 353 352 351 352 351 347 348 348 348 347 347 347 346 349 346 346 347 346 350 352 353 352 350 350 346 350 349 347 348 352 355 357 358
351 352 356 356 353 354 354 355 352 354 353 350 350 352 353 347 348 348 348 347 346 345 347 343 346 348 351 350 349 353 354 350 349 349 347 349 349 350 353 356 356 357 357
352 353 356 355 353 355 356 356 353 353 352 352 352 353 354 353 350 346 347 347 346 346 346 343 344 346 352 354 355 356 354 351 345 348 348 347 350 353 356 356 356 357 357
351 354 354 354 354 353 355 356 354 350 354 354 353 354 354 352 354 352 349 349 347 347 348 348 346 346 349 351 354 357 354 349 350 350 346 347 352 354 356 357 357 357 356
351 351 353 355 354 352 354 357 356 355 355 354 355 355 354 353 354 351 351 349 350 351 351 350 349 348 348 350 353 353 353 351 347 347 347 346 350 356 358 358 357 356 356
351 350 351 353 354 354 352 354 355 357 356 357 357 356 355 353 354 356 354 354 355 355 353 352 350 349 349 350 352 351 347 346 346 347 348 348 349 357 359 359 354 354 355
352 352 350 350 351 352 353 353 353 357 357 358 357 358 356 354 352 354 353 352 353 355 352 350 349 349 349 349 351 347 347 346 346 345 346 348 347 357 358 357 351 354 353
352 352 352 351 349 346 347 350 353 355 354 357 357 357 357 355 354 350 348 347 350 354 354 350 345 345 349 350 347 347 347 347 348 345 348 347 348 357 359 357 353 354 354
351 352 353 352 352 350 345 345 348 350 351 355 356 356 355 353 355 356 355 351 350 349 349 352 354 352 351 350 352 354 353 353 352 350 350 350 351 356 361 354 352 355 354
353 353 353 353 353 352 351 347 344 348 349 351 352 354 356 353 351 354 355 354 355 355 354 352 352 353 353 353 353 354 356 357 354 350 348 350 350 355 360 359 356 355 353
353 353 353 353 354 354 352 350 347 347 346 348 350 352 354 355 355 354 353 351 352 352 350 351 349 348 351 351 349 351 351 349 346 343 343 345 348 355 357 358 354 354 352
353 353 353 353 354 354 354 352 349 348 348 347 345 349 352 352 353 354 355 355 354 350 347 346 349 350 351 350 348 349 352 352 347 344 344 350 348 352 356 359 361 350 347

GFSMA_925_thetae_087.txt.gz
Theta_e
344 344 345 346 345 346 346 347 347 347 345 346 343 340 340 341 341 342 340 335 340 340 343 347 341 338 341 345 340 341 340 341 341 340 341 340 341 340 342 342 343 340 336
346 346 346 346 347 348 349 348 350 346 345 345 346 343 342 342 343 342 343 335 331 331 333 338 337 336 337 339 343 344 343 340 339 340 341 340 341 338 335 334 337 342 336
351 348 347 348 347 349 350 349 347 346 343 346 345 344 343 345 344 345 345 348 345 339 338 336 336 336 337 336 336 337 338 338 337 339 339 337 334 332 332 332 332 331 332
351 350 348 347 347 349 348 347 347 344 346 346 346 345 343 344 345 346 344 346 344 348 344 341 340 340 340 340 340 341 339 335 332 330 329 329 329 329 328 328 327 327 326
351 352 347 349 349 347 347 346 347 345 346 345 343 343 343 343 346 343 344 345 343 344 347 345 341 342 339 339 339 340 338 337 334 331 329 328 328 328 328 328 327 326 325
350 353 350 347 351 347 348 348 348 348 345 345 344 342 342 342 342 343 344 344 345 346 346 347 349 349 345 337 336 336 337 336 337 338 338 338 338 337 335 334 333 332 330
352 354 350 350 350 348 351 349 348 349 344 343 344 344 340 342 344 342 342 343 344 345 345 347 348 347 348 345 345 337 338 339 340 341 341 341 342 342 342 342 341 339 336
352 353 352 348 349 350 351 352 351 349 343 342 347 344 343 341 340 341 341 341 343 343 344 346 345 347 348 347 346 340 341 341 341 342 342 341 341 341 342 342 343 343 343
352 353 352 350 351 352 349 352 350 349 347 341 342 348 353 349 343 342 342 341 341 343 342 343 343 345 348 349 347 349 346 341 341 341 341 342 344 347 349 348 348 349 348
353 352 352 352 354 350 351 351 348 352 347 341 341 344 348 350 354 345 341 339 340 342 342 343 343 345 347 350 346 348 346 343 342 344 348 349 351 348 347 346 347 347 351
353 352 353 354 352 352 349 353 353 351 346 346 343 343 346 342 344 348 345 341 340 341 343 345 344 344 348 349 348 348 344 346 348 348 349 352 351 351 348 348 347 352 354
353 353 353 355 356 354 354 352 353 353 353 350 349 345 345 346 348 347 345 344 344 343 345 345 345 346 348 349 349 347 347 351 350 345 350 352 349 346 349 348 351 351 352
351 355 356 356 354 355 354 354 354 354 353 350 349 346 346 343 344 346 346 343 345 344 345 345 347 347 348 349 350 350 351 353 353 347 347 344 347 349 347 349 349 352 356
350 358 357 355 354 354 353 354 353 350 349 351 353 352 354 344 344 344 347 346 349 344 345 348 345 346 346 347 347 351 352 353 353 348 349 346 346 347 348 351 354 356 357
351 353 353 354 354 354 354 354 353 352 355 353 353 351 350 348 345 344 344 345 346 350 347 351 346 347 349 348 348 350 353 354 348 349 350 347 344 348 351 354 356 356 356
350 350 354 355 355 354 354 354 353 353 353 352 349 351 351 346 346 345 345 345 345 345 347 344 344 346 351 352 349 352 354 352 352 349 348 348 345 350 354 356 356 356 357
353 353 356 356 357 356 356 355 355 355 355 354 352 352 353 352 351 346 345 345 345 345 345 344 344 345 349 348 351 354 355 353 350 348 349 346 345 350 356 356 356 357 356
352 352 354 355 354 356 356 356 355 350 352 354 353 353 353 351 354 352 350 347 347 349 349 351 348 346 346 347 349 354 357 352 351 349 348 345 346 348 355 358 357 356 355
353 351 352 355 355 354 354 356 357 355 354 355 354 353 353 353 353 353 352 347 347 351 351 352 350 348 347 349 349 353 354 352 352 346 345 346 347 347 354 359 355 354 354
354 354 351 353 356 356 354 354 356 356 357 356 355 353 353 353 354 355 356 355 354 354 352 350 349 349 348 348 350 351 350 346 346 346 347 346 345 347 355 359 354 353 353
354 355 354 352 352 353 352 354 354 355 355 355 357 357 355 352 352 353 353 354 352 355 352 349 348 348 347 350 352 350 347 347 346 346 345 347 343 347 354 357 354 353 354
353 355 355 354 353 350 346 348 354 354 355 355 355 356 358 355 354 353 351 348 351 355 356 351 346 345 350 347 345 347 349 347 349 347 347 347 346 348 354 355 355 355 354
355 355 356 356 356 355 350 345 345 350 353 356 356 356 358 352 355 357 356 351 345 345 347 351 357 356 354 355 353 356 351 355 353 350 349 352 348 348 350 359 359 358 355
355 356 355 356 357 357 355 352 346 345 349 352 353 357 356 355 355 357 357 357 358 357 353 350 349 349 352 354 354 355 356 358 356 354 351 353 345 346 348 357 360 359 356
353 354 355 356 357 357 356 355 352 349 347 349 351 352 354 357 357 353 353 357 357 357 353 354 354 353 352 353 353 352 351 348 346 344 342 342 343 346 347 351 353 358 357
352 354 354 356 356 356 357 356 355 353 351 351 351 351 349 350 354 358 356 356 358 357 356 350 350 351 351 350 348 349 351 352 349 348 344 344 344 345 348 348 359 360 359

GFSMA_925_thetae_093.txt.gz
Theta_e
339 341 341 334 337 340 339 339 344 347 347 340 339 344 344 342 328 326 326 327 328 330 332 332 331 332 335 337 337 339 339 339 337 337 337 336 334 333 332 333 333 337 336
342 344 342 343 344 340 336 340 345 345 343 342 342 341 342 344 342 336 332 330 330 330 332 332 331 331 331 333 335 336 336 335 333 333 333 332 331 331 331 330 330 330 332
347 348 345 343 344 345 345 344 344 346 345 341 344 343 341 340 342 342 342 338 336 335 336 336 335 334 332 329 329 330 330 329 328 328 328 328 329 330 330 330 330 329 329
349 349 348 347 346 348 347 347 346 347 346 343 344 343 344 344 343 345 346 347 345 341 337 335 336 335 335 333 331 331 330 330 330 331 332 334 335 335 335 335 334 334 333
349 348 346 348 350 345 345 345 346 346 346 346 346 345 345 343 345 345 346 345 345 347 347 341 346 341 333 331 331 330 331 334 337 339 340 341 341 341 342 342 342 342 341
347 346 349 350 346 347 346 347 346 346 344 343 345 345 344 343 345 345 341 344 343 344 347 345 347 347 339 341 333 336 338 340 340 341 341 341 341 341 341 342 343 343 343
347 346 348 346 346 345 346 350 350 348 349 343 345 346 343 343 344 343 344 344 344 345 346 347 348 346 348 347 341 340 342 341 341 341 341 341 343 345 347 347 347 346 346
350 349 349 348 349 350 351 351 349 348 346 342 347 351 343 342 342 343 344 344 345 345 346 346 348 344 344 348 348 344 347 344 343 343 345 346 348 351 349 349 347 348 347
351 350 349 349 348 347 340 352 347 345 345 343 344 348 347 348 349 340 341 344 340 344 345 345 343 345 343 347 347 348 348 347 343 346 346 344 348 346 346 347 347 348 349
352 351 348 347 347 346 348 350 350 350 349 350 346 346 345 347 347 343 341 340 342 343 343 342 343 344 346 347 348 350 345 343 347 351 350 345 342 345 347 346 348 349 352
352 352 351 350 348 347 348 350 350 348 346 350 349 351 347 347 349 348 343 340 339 341 342 341 344 344 346 347 348 347 349 348 351 352 352 348 347 345 345 348 352 354 355
352 353 351 351 347 348 349 348 352 349 345 348 350 350 351 347 345 350 346 347 342 341 342 344 344 346 347 348 350 350 349 351 352 352 353 350 349 346 346 353 354 355 355
352 351 352 351 352 347 351 350 352 352 347 346 347 345 347 351 352 349 345 348 347 346 346 345 345 347 347 346 349 349 348 349 353 352 353 350 352 348 347 355 354 355 355
351 351 352 352 352 351 352 352 352 350 351 345 345 346 342 346 349 347 347 343 343 346 345 347 346 347 347 347 348 349 348 346 347 349 346 352 351 347 345 354 355 354 355
352 353 351 351 353 352 352 354 352 353 348 349 346 349 347 340 342 344 351 343 345 344 342 344 345 346 349 351 348 344 344 346 348 347 352 351 348 347 345 350 356 354 353
350 352 351 353 354 354 352 352 351 352 351 351 351 350 352 349 348 344 345 352 351 349 344 346 347 350 348 346 344 342 345 347 349 352 350 350 349 347 345 348 353 354 352
350 345 348 352 350 353 354 353 353 352 352 350 350 354 350 351 350 352 345 346 345 348 348 345 346 346 344 344 345 346 348 349 350 351 351 352 350 348 346 346 350 355 351
352 352 349 343 350 350 354 354 352 350 352 349 351 351 349 348 351 354 353 348 354 352 354 350 347 348 352 351 348 345 346 349 350 348 346 347 346 345 346 346 348 355 352
351 351 351 353 352 352 355 354 353 350 354 353 352 353 352 350 350 349 348 348 351 350 351 354 353 351 352 349 351 350 351 350 348 349 347 344 348 347 345 343 347 355 352
355 354 353 353 354 355 354 354 356 353 352 352 353 356 355 354 353 352 351 351 350 351 351 350 352 351 352 352 349 353 351 348 346 344 342 340 348 340 342 347 349 355 353
357 356 354 352 355 356 354 352 353 355 355 355 350 352 355 354 356 356 355 353 352 353 355 356 356 357 356 354 350 353 349 344 339 340 346 339 344 348 350 350 353 353 355
356 356 357 356 353 353 356 356 354 352 353 356 355 354 352 353 353 355 356 356 353 352 352 352 352 354 354 354 349 344 345 348 353 347 349 351 346 345 345 350 352 351 355
354 354 354 354 356 357 356 353 353 352 353 355 355 355 355 353 352 351 354 355 355 351 351 349 348 346 345 342 343 344 344 347 351 349 355 354 347 346 344 346 351 351 354
348 352 354 354 355 354 355 356 355 353 353 353 353 356 357 356 355 352 353 353 355 355 355 355 355 352 352 353 352 350 348 349 352 353 353 352 347 346 344 348 348 347 351
339 342 346 350 353 353 354 355 355 357 355 354 354 352 350 353 355 356 356 355 355 355 354 352 354 355 357 356 353 355 352 353 352 352 351 350 349 348 345 346 348 345 346
331 334 339 342 345 348 351 352 352 354 354 354 355 355 354 353 350 348 351 353 355 357 358 357 355 353 353 356 355 354 353 352 352 352 349 350 348 347 349 349 349 347 345

GFSMA_925_thetae_096.txt.gz
Theta_e
344 343 342 337 338 337 341 343 344 346 345 342 342 344 344 332 329 329 328 328 329 332 330 329 330 332 334 335 335 336 338 338 336 336 337 337 336 335 334 333 333 334 336
338 338 338 336 341 334 338 342 344 345 342 342 344 343 343 342 336 332 331 330 330 330 332 332 331 330 331 332 333 333 332 331 330 331 332 332 331 331 332 332 331 331 332
345 343 342 342 343 342 342 343 344 345 343 341 341 342 343 342 341 341 341 339 335 333 334 334 335 334 332 329 328 328 328 329 329 330 331 332 332 333 334 334 334 334 333
347 345 343 342 343 343 344 346 345 346 345 342 342 342 342 342 343 344 343 344 344 339 336 336 335 335 334 332 330 330 331 332 334 336 338 339 340 341 342 342 342 342 340
349 347 346 344 345 343 346 346 346 345 344 343 344 345 344 344 344 345 345 345 344 346 342 341 345 339 332 330 330 332 335 338 339 340 340 340 341 341 341 342 342 343 343
347 347 347 347 348 345 345 344 346 348 345 344 344 345 345 344 344 345 343 345 342 345 346 345 346 347 342 340 335 337 338 339 340 341 341 341 342 344 346 347 347 347 347
346 346 347 347 348 347 348 347 348 347 347 345 345 345 344 344 343 345 343 344 342 344 345 346 347 345 345 347 346 342 343 345 344 343 344 345 346 349 349 348 347 348 347
346 346 346 345 348 347 347 347 347 346 345 343 346 347 340 341 341 344 343 343 344 344 346 345 346 344 341 344 346 347 346 346 345 346 348 345 344 343 345 347 347 347 348
349 346 346 346 349 347 347 349 347 344 345 346 347 347 343 343 345 340 344 344 344 345 345 345 344 344 343 346 347 347 347 345 344 350 351 347 346 345 345 346 349 350 351
351 347 349 348 347 345 343 346 348 350 347 347 346 349 347 347 344 339 341 343 343 341 343 344 344 342 344 345 347 348 347 346 349 351 352 352 348 348 346 351 352 354 354
351 351 348 344 347 346 346 348 351 349 348 347 349 348 347 350 346 344 338 339 339 341 341 342 343 342 343 345 347 348 348 349 351 351 351 352 352 350 347 351 353 354 354
351 352 349 348 347 346 346 349 348 350 347 347 348 349 351 352 350 347 342 344 340 340 340 341 343 344 345 346 347 348 349 348 348 351 348 347 349 353 351 348 355 353 354
352 351 351 351 348 346 348 348 351 350 350 348 345 347 347 349 347 349 346 345 344 345 345 343 344 347 347 347 349 349 348 346 345 347 348 347 352 352 350 346 354 355 353
351 350 352 352 349 346 349 348 350 351 349 349 345 340 344 344 345 348 348 342 338 342 345 347 345 349 348 349 348 345 343 343 345 347 351 351 350 348 347 345 348 356 352
351 350 350 350 352 350 350 351 352 351 348 347 349 346 346 349 345 348 347 350 346 341 339 344 345 349 348 347 345 343 343 347 348 348 350 352 352 352 348 345 346 352 353
350 349 352 350 350 352 352 352 352 350 351 347 349 351 349 350 350 350 347 345 347 348 342 346 347 344 347 345 349 349 347 345 347 349 349 348 346 346 348 347 346 347 354
350 350 352 350 350 353 354 352 351 351 349 349 347 350 352 350 350 350 350 349 350 351 348 350 350 346 347 347 351 350 350 351 349 347 346 344 346 346 345 345 345 346 352
349 351 347 348 350 351 353 354 353 352 350 350 350 348 349 349 347 348 349 349 348 350 351 351 351 349 347 349 350 347 348 349 349 349 347 344 341 346 342 340 344 345 349
351 350 349 348 348 349 350 352 354 352 351 353 351 350 350 348 347 345 347 347 347 348 349 350 350 349 348 347 351 351 345 345 341 336 334 334 342 339 342 348 350 351 349
353 351 351 351 351 350 350 352 354 353 352 351 352 351 353 354 353 352 352 352 351 351 350 351 352 353 354 354 355 352 344 338 338 339 336 338 339 342 344 344 347 350 351
352 353 354 353 352 353 353 354 354 354 354 354 353 352 351 353 354 354 355 355 355 353 352 352 354 353 351 350 351 350 350 343 343 344 343 344 342 336 337 341 345 351 351
353 352 355 355 354 352 353 354 355 355 353 353 352 352 354 351 351 353 353 353 355 357 355 353 352 351 349 346 343 344 343 347 348 347 348 349 347 342 341 335 343 348 351
349 352 353 355 355 354 355 355 354 353 354 354 353 354 354 353 354 354 352 351 351 353 355 355 353 350 351 351 349 350 350 349 349 350 350 352 344 345 345 341 338 346 348
340 343 346 351 353 353 354 354 355 354 353 353 353 353 352 354 355 355 355 354 352 352 352 354 354 353 353 353 354 355 354 352 352 352 351 351 342 344 345 341 341 343 346
334 335 338 342 345 349 351 352 353 354 355 354 354 354 354 353 352 349 351 355 355 355 353 352 353 354 355 353 354 357 356 353 351 351 350 349 345 347 347 346 346 345 345
329 330 336 339 340 343 345 345 347 351 352 352 352 352 352 353 354 354 352 350 350 349 349 348 349 349 349 350 355 355 354 354 351 350 348 348 347 347 347 347 348 347 348

GFSMA_925_thetae_102.txt.gz
Theta_e
340 341 341 341 338 337 341 343 343 341 341 342 342 343 343 341 332 332 331 330 334 337 336 335 336 335 335 336 337 337 336 335 334 332 333 334 333 333 333 334 334 334 333
341 340 338 335 335 337 340 343 343 340 341 341 342 343 343 339 333 333 333 332 331 332 333 334 334 333 333 333 333 332 333 333 334 336 336 337 338 339 340 340 341 340 339
340 338 340 341 338 341 342 343 344 341 341 341 342 342 342 341 337 336 336 337 337 333 334 334 334 334 333 332 332 333 334 336 338 338 339 340 340 341 341 342 342 343 343
343 342 342 342 342 343 344 344 344 343 341 342 341 341 342 341 341 342 341 341 341 341 337 339 339 336 333 332 334 335 336 338 339 339 340 341 343 343 345 346 347 347 346
346 344 342 343 343 343 344 344 344 344 344 343 344 343 343 343 343 343 343 343 343 343 344 344 342 343 342 340 338 338 339 341 342 343 344 345 345 345 345 345 346 347 347
346 345 344 344 345 344 343 344 345 345 344 343 343 343 344 344 344 343 343 343 343 343 343 344 345 345 344 344 345 345 346 347 347 347 345 347 348 347 346 346 347 347 347
345 345 344 345 346 345 344 346 346 346 344 342 343 345 343 342 343 343 342 342 342 343 343 344 344 344 343 342 343 345 346 347 347 347 346 347 349 350 348 347 351 351 352
345 345 345 345 346 345 345 346 347 344 343 344 345 342 344 340 340 340 341 342 343 343 343 344 344 344 344 344 344 344 346 347 347 347 348 349 349 350 350 350 349 353 353
345 344 346 343 345 345 345 346 345 345 346 344 346 346 346 347 342 338 341 341 342 342 342 343 343 343 343 343 343 344 345 347 347 347 348 350 350 350 350 351 349 353 352
348 346 346 346 346 345 343 345 347 347 347 347 346 347 346 346 348 347 338 340 341 340 340 341 341 341 341 342 342 343 344 348 347 347 346 348 351 351 352 351 350 349 354
349 349 347 347 346 346 345 344 347 347 347 348 348 349 345 346 346 341 346 341 339 338 338 339 340 341 342 344 344 345 347 346 345 345 348 348 349 350 351 349 348 345 352
348 348 349 347 346 346 344 346 346 345 345 345 346 347 348 346 348 346 343 343 343 342 345 344 342 343 345 347 347 346 345 343 345 346 349 349 349 348 348 349 348 345 347
348 347 350 347 345 347 345 346 347 345 343 346 346 343 345 345 346 347 343 340 341 342 345 347 348 348 347 346 345 348 347 346 347 346 346 345 344 345 345 346 346 346 346
348 349 349 350 349 348 346 346 347 348 345 344 347 344 345 347 344 345 347 345 346 340 341 344 347 344 346 346 349 348 348 348 348 348 345 345 345 343 343 344 344 345 345
348 348 350 349 349 349 346 347 349 348 348 349 346 346 345 347 348 348 345 346 345 349 347 344 345 345 345 346 347 347 348 347 346 344 341 339 336 338 343 342 340 342 347
348 348 348 348 348 349 349 348 348 349 350 349 348 347 349 347 349 349 349 345 345 344 348 343 345 347 344 345 345 346 347 349 341 334 333 334 336 337 343 346 347 348 348
349 349 349 349 349 349 350 351 350 349 350 350 349 348 348 348 349 348 350 349 348 348 348 347 346 345 343 344 343 344 347 350 348 336 335 338 338 341 341 342 343 345 348
348 348 348 350 349 350 350 350 351 351 350 350 349 349 349 348 347 349 347 346 346 347 348 347 348 347 345 347 348 349 348 343 339 339 338 341 342 344 341 340 338 342 346
348 348 347 349 349 349 350 349 348 350 350 349 347 347 349 349 349 350 351 348 349 349 349 349 349 350 350 350 348 345 345 346 346 344 345 345 345 342 337 341 341 340 346
348 346 348 349 349 348 346 347 347 348 350 351 349 349 350 349 350 350 352 352 352 352 352 352 352 352 352 353 352 350 351 351 350 348 344 344 344 340 341 340 343 340 344
349 350 348 351 350 349 349 349 349 348 350 350 351 352 351 351 351 352 351 349 350 351 351 352 351 352 352 352 351 352 351 350 350 348 347 347 345 341 339 339 344 339 343
341 344 348 350 349 350 351 352 352 352 353 353 353 353 353 352 350 352 352 352 352 351 352 352 352 352 351 351 352 352 350 349 351 349 351 352 351 345 344 340 341 345 344
340 340 341 344 346 348 350 350 351 351 351 351 352 352 351 351 352 352 351 350 352 353 354 354 352 352 351 351 352 352 351 351 350 351 351 352 351 348 346 347 345 344 346
333 337 337 338 340 342 344 345 346 348 350 351 350 350 350 351 350 351 350 350 351 351 350 350 351 350 351 350 351 351 351 351 351 350 350 351 351 350 347 347 347 346 346
328 331 337 342 341 333 331 334 344 345 346 346 346 348 349 350 349 350 350 350 351 351 352 351 351 350 350 350 350 349 349 349 350 351 350 351 351 349 348 347 348 347 348
330 336 336 334 330 326 325 327 326 325 326 325 329 330 334 336 339 342 344 345 347 349 349 350 351 351 351 351 351 351 350 349 350 351 351 350 350 349 350 348 348 348 349

GFSMA_925_thetae_105.txt.gz
Theta_e
342 344 341 338 337 339 341 343 342 343 342 343 346 345 346 344 341 341 339 331 334 338 338 336 336 335 334 333 333 334 333 334 335 336 338 338 339 339 340 340 341 341 340
341 340 337 337 337 340 342 343 342 343 342 345 344 344 344 344 337 339 343 343 333 332 333 334 336 335 332 332 333 334 336 337 338 339 339 340 340 341 342 342 343 343 343
338 339 340 340 340 341 343 344 343 341 345 345 344 344 345 345 343 341 344 344 343 338 336 335 334 333 333 334 335 336 337 338 339 340 342 343 343 344 345 346 347 347 347
340 340 343 343 342 343 343 344 346 345 345 346 345 345 346 345 344 343 344 343 344 344 344 341 341 340 338 336 337 338 340 341 343 344 344 345 346 346 346 345 346 346 346
344 342 343 343 343 343 344 348 346 347 349 347 346 346 347 346 346 345 346 343 343 343 345 345 344 344 344 344 344 345 345 346 347 347 347 346 347 349 348 347 349 350 349
345 344 343 344 345 344 347 348 345 345 347 346 346 347 348 348 345 346 346 346 345 343 345 344 344 346 342 343 343 344 345 346 346 347 347 347 348 349 350 350 348 352 352
345 344 346 347 345 348 345 345 347 348 347 346 350 349 347 345 346 347 346 346 346 346 345 345 344 347 347 344 344 345 345 345 347 347 347 348 349 349 349 350 350 353 351
346 345 345 347 346 348 344 346 345 347 348 346 350 349 348 344 346 344 344 345 346 346 346 345 343 343 343 344 344 345 345 345 347 347 347 347 349 350 351 351 351 348 354
345 345 345 344 346 348 349 345 346 345 350 349 348 350 350 349 350 343 344 344 342 346 345 343 342 341 341 342 343 344 345 347 346 345 346 347 349 350 351 351 350 347 349
347 344 345 344 345 345 344 347 347 348 350 352 351 349 350 351 352 346 344 343 342 343 341 342 343 343 342 346 344 345 347 345 343 345 348 349 349 349 350 351 349 347 346
347 348 346 346 346 345 345 344 346 347 350 352 352 352 351 351 351 350 348 347 345 346 348 345 342 344 346 347 347 348 344 344 345 345 347 346 345 344 344 346 349 347 345
346 348 348 347 347 347 344 346 347 346 347 347 351 351 351 350 351 349 348 350 349 348 350 351 351 351 351 350 348 345 346 346 347 346 344 344 345 344 343 345 346 346 345
351 347 347 347 345 346 346 345 346 345 347 351 345 349 350 350 351 351 350 348 347 347 349 350 351 351 349 351 350 346 348 349 349 348 345 344 341 337 339 342 342 343 343
349 347 347 346 347 349 345 346 350 352 346 349 347 344 350 351 350 350 351 350 349 349 348 350 349 349 349 350 349 348 350 345 340 337 336 335 335 335 340 343 344 344 346
349 349 349 349 348 349 349 345 351 348 350 349 350 347 349 351 351 353 350 349 350 350 349 349 347 349 349 348 348 346 351 348 349 341 337 335 336 338 340 342 344 345 347
349 349 348 348 348 349 349 347 349 347 348 352 352 348 350 351 352 352 352 351 349 348 348 348 347 349 347 346 345 348 351 350 351 339 340 338 337 343 342 339 339 341 344
347 348 348 348 348 348 349 350 350 348 349 354 351 351 352 351 351 351 353 353 352 351 348 346 350 349 349 353 351 349 350 349 346 345 344 343 342 343 341 338 341 339 344
346 348 348 348 348 351 351 350 353 353 350 352 352 353 353 352 352 351 351 353 351 352 351 351 352 352 354 355 353 353 352 352 353 347 344 341 341 342 342 340 342 341 343
347 346 348 346 347 347 349 349 348 350 348 347 351 347 351 352 349 352 351 353 350 353 353 353 354 354 355 355 355 354 355 356 352 347 345 342 340 338 340 339 343 342 342
348 346 347 347 348 348 347 347 348 348 348 350 348 348 348 351 349 351 352 352 350 350 352 354 353 353 353 354 354 353 352 352 351 349 346 347 348 349 349 343 343 342 340
347 347 346 346 348 349 348 349 349 351 350 353 351 348 348 350 349 350 351 350 352 352 350 350 351 352 352 351 352 352 352 351 348 348 350 349 349 350 348 347 346 344 345
342 346 348 349 349 351 349 349 350 354 353 355 356 354 351 350 350 349 350 350 350 351 354 351 351 353 355 355 352 352 352 352 351 348 352 351 351 351 350 349 347 345 345
339 340 342 346 345 345 345 348 348 351 352 353 353 354 351 353 352 353 351 350 351 351 350 352 355 356 355 355 355 354 353 354 353 352 351 352 351 352 351 350 348 345 345
335 339 342 343 338 336 342 345 345 348 349 349 350 349 350 350 347 347 348 352 353 354 355 354 353 354 354 355 355 354 355 353 353 353 353 355 352 352 353 352 351 347 346
332 339 340 334 330 328 328 336 336 336 336 336 339 339 340 338 336 340 343 344 346 351 352 350 349 350 350 350 350 349 352 352 354 352 352 354 353 353 353 352 352 349 347
332 334 330 320 318 322 324 323 324 327 328 328 328 329 323 322 322 324 332 332 334 340 340 342 346 349 350 351 349 349 351 352 353 353 353 354 353 353 353 351 353 353 353

GFSMA_925_thetae_108.txt.gz
Theta_e
346 345 346 345 345 346 347 348 348 348 347 346 346 346 345 345 343 339 336 330 330 332 334 334 333 332 332 332 333 335 337 338 339 339 340 341 341 342 342 343 343 343 343
346 344 343 344 344 346 347 348 349 345 344 344 346 345 345 344 345 343 340 339 333 331 331 331 332 333 333 334 336 338 339 339 341 342 343 343 345 345 345 346 346 346 347
348 346 345 344 346 349 350 350 346 347 343 342 345 345 345 346 344 345 343 342 343 341 337 335 334 333 334 335 337 339 341 343 345 346 346 345 346 348 347 347 346 348 347
348 347 345 347 348 349 349 346 344 344 344 345 346 345 345 345 345 345 344 344 344 343 345 341 341 341 342 343 344 345 346 346 346 347 347 347 347 348 350 349 348 349 351
350 347 347 348 351 349 348 346 346 346 346 345 344 344 344 344 345 343 345 346 345 346 346 342 342 342 342 343 344 345 345 346 346 346 347 347 348 349 349 350 350 350 352
352 350 349 350 350 349 347 347 350 348 347 346 343 344 344 345 346 346 345 344 346 347 346 348 348 348 341 343 345 345 345 345 346 347 347 347 348 348 349 350 350 350 352
352 353 350 352 350 349 351 353 349 349 345 348 347 343 343 345 346 345 345 346 345 345 345 345 350 350 351 349 348 345 344 345 347 346 345 346 348 350 351 351 351 350 348
353 350 351 350 351 348 347 352 352 344 346 350 348 346 344 342 343 343 344 344 346 346 347 348 349 350 351 350 349 346 345 346 345 343 346 348 348 348 349 350 351 349 347
352 350 349 351 349 349 348 351 351 352 346 351 354 351 346 346 343 342 344 343 346 347 348 348 347 348 350 351 350 349 347 345 343 344 345 346 347 347 345 346 348 349 347
351 351 353 351 350 351 352 352 351 352 355 349 352 352 354 356 347 345 342 343 343 344 346 346 346 348 351 350 351 350 345 344 345 345 346 344 344 344 343 343 346 346 346
351 350 353 354 354 351 352 353 354 355 351 351 351 353 354 352 353 346 346 344 342 346 349 348 348 349 352 352 350 348 344 345 347 346 347 344 343 340 337 337 342 345 344
351 352 353 353 354 353 352 351 355 354 354 354 353 353 351 351 350 348 346 347 346 348 349 350 351 351 351 350 350 347 348 347 348 347 344 339 337 337 337 340 340 340 340
350 351 352 352 350 354 354 352 355 355 354 353 354 350 351 351 351 351 350 348 347 348 349 349 350 350 349 349 349 346 351 348 345 338 336 335 337 338 339 340 344 345 345
350 351 351 350 351 354 353 354 351 351 351 351 354 354 350 350 350 351 350 349 350 348 349 351 349 349 349 348 348 345 344 348 348 349 341 339 338 342 342 337 338 342 343
352 353 352 352 352 351 353 354 350 352 353 353 351 352 351 350 349 350 350 349 349 349 348 351 349 348 348 345 344 347 347 347 345 350 342 342 340 342 341 336 338 339 340
354 353 352 352 353 354 355 353 351 351 352 351 350 352 351 348 350 349 349 348 348 348 350 346 346 349 351 350 345 348 348 348 347 346 344 344 343 343 342 341 338 341 340
350 352 352 352 350 352 354 354 353 352 352 352 351 352 352 352 348 347 347 347 347 346 348 345 346 346 351 352 353 353 350 348 346 347 346 342 341 341 339 341 338 341 340
351 351 351 352 352 353 354 353 353 351 353 352 352 352 352 350 354 352 349 348 348 349 349 348 348 348 349 352 352 356 353 348 348 348 343 343 343 344 345 346 341 339 340
350 351 350 351 351 352 352 351 353 353 353 351 351 351 352 352 353 352 353 350 348 348 350 350 350 347 348 350 351 350 350 349 347 345 343 342 344 348 348 349 342 343 339
350 350 350 350 349 352 351 352 352 351 351 351 352 351 352 351 352 353 352 353 352 352 349 351 349 347 347 348 350 347 346 346 347 346 344 346 346 347 348 348 346 345 345
351 352 351 351 351 351 350 354 354 354 354 353 353 353 352 351 350 349 351 351 352 352 350 349 349 347 347 353 349 348 347 346 346 346 346 348 346 347 347 348 348 347 345
352 353 353 352 352 351 349 349 350 355 354 354 353 353 352 353 352 352 349 351 351 352 353 353 350 349 350 352 349 349 351 351 353 350 352 352 350 349 348 348 349 347 344
348 349 351 351 345 342 346 347 347 351 353 353 354 355 354 350 350 352 354 352 351 352 353 353 353 353 354 353 353 356 355 355 355 354 354 352 351 350 349 349 351 351 347
345 346 345 341 335 334 344 345 347 353 351 349 346 346 347 346 344 344 347 352 354 354 354 356 356 356 356 355 355 354 353 355 354 354 352 353 350 350 350 350 351 352 351
343 340 336 333 326 326 333 338 342 343 342 342 339 330 333 332 329 336 339 344 346 348 350 348 349 348 347 349 350 351 352 352 354 353 353 353 353 352 352 351 351 353 353
334 332 325 321 318 318 320 326 330 335 335 335 334 332 324 319 319 320 327 333 338 340 336 337 341 345 348 350 347 349 352 353 353 353 352 352 353 353 355 352 352 352 353

GFSMA_925_thetae_111.txt.gz
Theta_e
344 345 346 345 345 346 345 345 345 345 344 344 342 343 341 342 339 336 334 328 328 329 330 331 331 332 333 335 336 338 340 341 342 343 343 344 345 346 346 346 346 347 347
346 345 346 345 345 345 347 346 349 344 343 341 344 344 342 342 343 341 339 333 329 328 329 330 332 333 335 336 338 341 342 344 345 346 347 347 347 348 349 348 348 347 348
349 345 345 345 346 347 350 345 345 344 341 340 343 344 343 343 343 345 342 341 335 334 333 334 335 336 338 341 344 345 346 346 346 346 347 347 348 348 348 349 350 349 350
349 350 346 346 347 348 345 343 344 341 341 341 343 344 343 342 344 345 344 344 345 344 339 339 340 342 343 344 344 345 345 345 345 346 347 347 347 348 348 348 349 350 350
351 348 345 349 349 344 344 343 343 345 341 342 343 344 343 342 345 344 345 345 344 346 346 341 342 342 343 344 345 345 345 345 345 346 346 346 347 347 349 350 350 350 350
351 351 349 348 352 347 343 350 352 344 345 344 344 344 344 344 344 345 344 344 345 347 346 348 350 351 348 347 347 345 344 345 346 345 345 347 347 348 349 349 350 351 350
352 353 350 350 353 348 349 347 347 347 346 343 347 343 344 345 346 345 345 345 344 345 344 345 351 351 352 352 351 346 346 346 345 344 345 347 348 348 348 347 347 350 350
353 352 353 351 351 348 350 352 352 345 344 347 352 343 345 343 343 344 344 344 345 345 346 348 350 352 352 351 350 349 348 346 344 345 345 345 344 344 344 344 343 347 349
352 353 352 353 352 354 348 352 348 351 349 347 351 353 350 351 343 343 344 344 346 347 347 348 348 348 351 352 351 351 348 342 344 346 346 344 344 343 341 335 335 343 347
351 351 352 352 353 350 351 350 349 351 352 347 347 349 354 355 358 344 342 343 344 345 346 346 346 349 351 351 353 350 343 344 347 348 347 345 341 338 335 336 341 340 343
353 351 353 353 354 353 353 355 353 356 351 352 350 348 351 346 345 348 351 344 342 345 348 348 347 348 352 353 351 350 344 347 346 344 338 336 335 336 336 338 343 344 345
351 352 352 354 355 355 354 353 355 354 357 354 355 351 349 350 349 349 347 345 347 348 347 348 349 349 350 350 351 349 344 349 348 346 346 343 338 337 340 338 335 339 343
349 354 354 354 353 355 355 353 355 355 354 355 356 353 349 349 349 349 348 349 346 347 348 346 349 349 349 349 349 348 345 345 350 348 345 342 340 338 342 339 336 338 340
348 353 352 354 353 354 354 355 353 353 351 352 354 355 354 349 348 348 348 347 350 350 350 349 349 348 350 349 345 343 345 345 347 343 345 342 342 339 343 342 340 337 341
349 352 350 351 353 354 354 355 352 352 356 354 352 353 352 349 347 348 348 348 348 349 348 354 348 350 350 349 348 350 348 347 345 348 347 342 340 341 341 340 340 337 341
356 354 352 352 353 354 354 354 352 353 352 352 350 350 354 348 349 347 347 347 347 347 349 345 345 346 352 351 348 351 351 351 348 346 345 345 342 339 342 344 344 341 339
355 355 354 353 354 353 353 354 355 353 354 352 352 352 352 352 350 346 346 346 345 344 346 346 345 343 345 350 352 353 350 351 346 346 346 342 343 342 346 348 347 342 338
354 354 354 355 353 354 353 355 353 352 352 353 352 351 350 348 352 351 347 346 346 346 346 349 346 349 347 349 349 353 350 349 347 349 343 343 343 344 346 348 348 342 342
354 353 354 354 355 355 356 356 355 354 354 352 352 352 351 351 354 353 355 351 349 351 351 350 349 346 348 348 349 349 350 347 346 344 344 343 346 346 346 348 348 344 342
353 353 354 353 353 353 355 354 354 354 353 352 351 351 352 352 352 354 354 353 352 352 350 350 349 347 346 350 352 347 347 345 346 347 346 347 346 347 346 348 348 347 346
351 351 352 352 353 352 353 354 354 354 354 353 352 353 352 353 352 350 350 350 354 351 352 350 349 347 346 352 347 348 348 348 350 350 352 352 350 349 348 347 348 349 349
352 352 351 351 352 349 348 347 348 353 353 354 353 353 351 352 355 352 353 350 350 353 354 354 353 350 353 353 352 353 355 354 354 353 355 355 353 349 348 348 349 351 351
351 351 353 351 347 346 345 346 347 348 352 354 354 357 356 350 348 350 352 351 353 353 352 352 354 355 354 354 354 357 355 356 355 354 354 356 352 352 351 348 349 349 351
348 350 345 341 336 338 344 345 347 354 351 350 349 348 347 341 341 342 342 350 352 352 353 354 355 355 354 352 350 352 353 352 354 354 353 354 354 355 354 354 351 352 352
343 340 337 331 326 331 340 343 348 348 348 344 333 332 333 328 321 322 335 340 342 346 347 341 340 341 345 347 349 350 352 352 353 352 353 354 353 353 355 352 353 353 353
334 333 329 324 320 321 328 335 336 340 342 341 339 330 322 319 318 319 329 333 332 331 332 337 340 344 346 348 348 349 349 350 349 349 350 350 350 350 351 351 351 352 352

GFSMA_925_thetae_114.txt.gz
Theta_e
345 343 344 346 345 346 346 346 344 343 343 343 343 341 342 340 338 334 325 326 326 326 327 329 331 334 336 338 339 341 343 345 346 346 347 347 347 347 347 348 349 348 348
344 344 345 345 346 344 347 342 345 345 344 341 344 343 342 343 344 338 328 325 327 328 331 333 334 336 338 340 344 345 346 346 346 346 346 347 347 348 348 348 348 349 349
349 347 345 345 344 340 344 342 345 342 343 343 343 344 343 343 343 343 340 337 333 334 335 336 338 341 343 345 345 345 345 345 345 346 346 346 346 346 347 348 348 349 349
349 347 345 347 343 343 347 346 346 346 342 345 344 345 343 343 345 345 344 344 344 340 337 340 342 344 344 345 346 345 345 344 345 346 345 346 346 347 348 349 350 350 350
349 349 351 344 341 347 350 350 346 346 343 343 344 344 344 342 345 345 345 346 346 348 344 342 346 344 346 347 346 345 344 345 345 343 344 346 347 348 348 348 348 348 349
351 351 349 345 351 350 342 349 343 343 348 344 346 344 344 345 344 344 345 346 342 345 348 347 349 350 349 350 350 346 346 346 344 344 344 346 344 344 344 343 342 344 347
350 354 352 346 333 346 351 352 343 350 347 343 351 344 346 345 346 346 345 346 341 347 344 346 352 351 352 352 351 348 348 344 344 345 345 345 344 344 342 337 337 339 345
349 353 350 351 346 349 350 349 351 351 350 347 349 355 354 349 346 345 345 344 345 344 346 348 349 350 350 351 351 350 349 342 345 347 346 345 344 340 336 336 343 343 341
352 354 352 349 349 351 350 352 354 353 354 346 351 354 357 357 347 344 342 346 342 347 347 347 348 348 350 352 353 350 343 343 345 346 344 340 337 336 335 337 339 343 344
351 352 353 353 338 338 349 353 350 350 356 355 351 350 340 344 356 357 345 344 345 346 346 344 348 349 352 351 352 350 347 344 348 345 345 344 345 339 337 339 336 339 340
351 351 352 353 352 351 350 356 352 353 355 350 352 358 349 352 345 355 356 344 344 345 348 348 345 351 352 350 353 349 348 344 345 348 348 343 343 339 337 340 339 339 340
352 350 351 352 346 351 354 353 352 354 354 345 350 357 348 347 342 351 349 345 348 348 350 349 349 347 347 350 348 345 342 345 344 347 343 344 339 338 337 341 340 340 339
352 350 352 352 354 352 354 354 355 354 353 354 354 354 354 345 337 340 346 343 341 346 344 337 348 343 351 348 347 346 348 347 347 345 345 344 339 337 338 337 337 342 341
351 352 351 353 352 352 354 355 354 351 353 352 354 351 349 352 349 347 349 346 353 346 338 336 348 346 350 350 349 348 349 350 348 347 347 346 343 339 337 341 343 342 340
351 354 352 353 351 351 354 354 353 352 353 356 351 351 348 348 351 351 347 347 350 355 351 347 349 349 349 348 348 349 347 347 350 349 346 344 344 342 343 346 347 343 339
344 335 352 350 352 352 350 353 352 353 352 352 352 353 354 353 352 351 350 350 348 348 356 348 347 345 346 345 348 349 351 349 348 349 347 345 343 342 344 346 348 342 341
343 352 354 353 353 353 350 353 353 350 353 353 352 351 351 349 349 346 345 343 342 345 349 345 344 343 348 349 350 349 351 351 350 350 344 343 343 344 345 346 347 342 341
355 352 354 353 355 354 353 354 352 353 352 352 353 353 350 350 351 352 353 355 353 350 351 351 352 346 346 345 349 348 351 350 346 345 344 345 343 346 348 347 346 346 345
354 354 353 354 354 352 353 352 354 354 353 354 351 352 351 352 352 353 351 353 352 352 350 354 351 350 350 353 350 347 345 348 349 347 350 353 352 350 348 348 346 347 347
352 353 353 353 353 352 353 353 355 353 354 353 353 351 350 351 351 351 353 352 353 351 350 353 352 351 350 352 351 354 354 356 354 353 353 353 351 351 352 348 347 348 349
352 353 352 352 353 353 352 351 352 351 352 352 352 353 353 352 351 351 350 349 349 353 354 353 354 353 355 354 354 356 354 354 355 354 355 351 354 357 356 352 349 349 351
349 350 351 352 351 349 348 348 349 343 351 349 352 351 351 351 351 348 352 353 352 350 351 351 354 354 354 355 354 354 355 357 355 354 355 355 353 355 356 352 352 350 350
351 351 351 350 348 346 345 347 347 347 348 353 354 351 353 349 347 348 348 347 353 353 353 352 352 353 353 352 353 351 351 354 355 353 354 355 355 355 354 354 353 352 352
349 345 342 341 338 341 344 345 345 349 352 350 349 348 344 338 335 337 340 344 346 347 348 345 336 340 342 343 346 348 350 351 350 348 350 352 352 351 348 347 351 353 351
342 339 335 330 330 335 337 341 348 350 347 341 337 334 330 322 320 321 336 335 334 334 329 330 336 340 344 345 347 346 347 348 350 348 347 341 345 345 344 348 350 347 352
335 336 331 327 324 325 328 332 340 346 344 341 333 326 320 318 317 318 322 328 318 316 323 334 335 341 338 343 336 332 333 339 340 341 338 332 339 341 346 347 345 346 348

GFSMA_925_thetae_117.txt.gz
Theta_e
344 343 346 344 343 345 344 343 345 345 346 345 340 341 340 337 334 323 324 325 326 327 329 333 335 337 338 340 342 344 345 346 346 346 346 346 347 348 348 348 348 348 349
347 348 343 344 338 345 346 342 344 343 341 343 342 340 341 343 337 326 326 328 330 332 334 336 338 340 342 344 345 345 345 345 344 345 346 346 346 346 346 347 348 348 348
343 345 347 346 348 346 346 343 345 346 343 341 344 342 341 342 343 337 335 335 335 336 337 339 342 344 345 345 345 345 344 344 344 345 345 345 346 347 347 347 348 349 350
347 349 342 346 348 348 349 348 347 347 344 342 343 343 342 341 344 345 341 340 339 337 340 343 344 344 345 346 346 345 344 344 344 344 344 345 345 345 344 344 343 344 346
348 351 350 349 340 347 346 348 344 345 345 344 344 344 343 342 344 345 345 346 346 346 340 345 346 345 346 348 346 345 346 345 344 345 345 344 343 343 341 338 336 337 343
351 350 350 345 342 345 344 349 345 347 348 344 346 344 343 343 345 344 344 346 346 348 348 344 347 349 349 349 350 347 347 342 344 346 345 345 343 339 337 337 342 343 340
351 351 350 342 344 347 350 344 348 350 351 349 351 347 345 345 343 343 344 345 343 345 347 345 351 349 351 351 352 349 344 343 343 344 345 342 339 337 337 339 336 341 344
348 350 349 340 343 346 351 351 349 352 351 345 349 355 343 345 345 346 346 345 344 344 346 345 348 350 349 351 352 349 342 344 346 345 344 344 344 343 337 340 336 338 341
352 352 351 344 344 347 350 351 353 353 353 352 347 351 348 348 348 346 345 344 344 345 346 346 348 349 349 351 351 346 347 344 344 344 347 345 342 340 337 339 339 339 339
351 351 352 350 347 345 348 350 353 353 352 352 340 347 342 343 347 349 346 345 343 347 347 347 347 349 350 353 349 348 343 344 343 346 343 343 339 337 336 339 339 339 339
350 349 352 351 343 345 349 352 353 352 349 346 351 351 349 345 346 345 345 344 340 344 345 343 349 349 351 351 346 343 346 347 345 345 343 344 340 337 335 337 338 342 339
351 349 351 347 346 349 350 353 353 351 347 336 349 351 343 346 344 342 341 336 335 339 337 340 346 344 341 347 348 347 348 347 345 345 345 345 344 340 339 341 345 343 339
350 349 352 350 346 349 351 353 354 353 353 351 351 350 352 342 341 342 340 336 340 340 342 338 340 346 349 350 347 346 347 344 344 348 349 348 345 342 342 345 347 343 338
348 352 350 351 353 352 351 354 351 351 352 353 352 352 350 349 350 346 345 339 339 344 341 339 342 348 351 350 346 346 347 345 348 348 349 346 343 342 343 344 347 341 339
350 352 350 349 350 352 351 352 352 351 349 353 349 353 352 353 351 351 349 348 350 348 345 349 348 347 347 345 346 346 348 349 350 349 347 343 342 342 343 344 346 343 341
351 350 352 353 350 351 352 352 352 352 353 351 351 352 353 353 344 347 346 351 344 346 344 346 350 351 349 348 345 346 349 349 350 350 345 347 345 343 345 345 345 347 344
349 337 350 351 350 353 350 353 350 350 350 350 351 351 351 350 349 349 351 353 354 352 350 350 349 347 348 351 351 351 352 350 351 352 351 351 352 349 349 350 347 346 346
344 348 350 353 353 352 353 352 354 349 352 351 352 352 352 351 349 354 351 348 351 353 350 353 352 351 349 351 349 350 353 354 352 350 347 350 351 351 355 356 354 346 347
350 352 351 353 352 355 353 352 351 352 352 352 351 349 351 351 352 351 348 349 350 351 350 352 352 351 352 352 351 348 349 348 347 346 347 349 350 353 354 353 349 347 348
352 353 354 352 353 351 351 353 351 352 352 351 351 352 351 349 353 352 350 351 351 349 349 350 352 351 352 354 353 353 352 350 347 347 350 352 352 354 354 350 350 348 348
351 351 351 352 350 352 352 351 350 351 350 348 349 349 350 350 350 349 349 348 347 347 347 348 349 351 352 351 353 353 352 348 350 352 351 351 353 355 352 351 351 351 348
350 348 352 350 349 348 348 349 345 346 339 337 342 337 349 349 348 349 351 350 350 352 352 352 352 352 352 349 345 348 348 351 352 349 349 351 351 350 348 348 351 351 351
348 349 349 347 344 344 344 346 346 345 347 346 338 349 348 344 342 343 345 349 348 348 350 349 341 337 337 338 341 345 347 348 349 348 346 348 342 339 336 340 346 346 350
345 347 343 339 337 338 342 344 346 349 347 347 346 343 338 331 329 337 338 338 338 337 334 333 334 338 341 343 344 343 341 340 340 342 329 334 334 337 342 346 343 344 345
338 331 334 335 334 332 335 345 348 347 343 339 332 324 322 320 319 324 325 319 317 317 329 332 334 344 337 330 328 329 332 336 333 333 326 328 330 336 339 344 338 337 340
335 333 327 324 324 329 331 338 345 337 330 324 323 321 317 316 316 317 319 317 316 324 329 332 338 337 333 324 325 326 331 330 328 328 325 332 334 335 334 336 329 327 325

GFSMA_925_thetae_123.txt.gz
Theta_e
339 341 344 343 342 342 344 344 343 344 344 342 341 339 342 339 335 327 327 328 329 331 333 335 337 338 340 341 343 344 345 345 345 345 345 345 345 345 346 346 346 347 347
341 342 342 340 340 343 346 345 344 345 345 341 341 339 338 337 333 325 326 328 330 333 336 338 339 340 341 343 344 344 344 344 344 344 344 345 344 343 343 343 342 342 343
344 342 342 344 345 345 346 346 345 345 347 341 341 340 340 340 337 330 331 332 334 336 338 340 342 343 343 343 344 344 344 345 345 345 345 343 342 341 338 338 339 343 341
344 344 344 345 346 345 345 346 347 346 342 343 343 341 340 341 343 343 339 336 336 337 339 341 342 343 343 343 344 345 347 346 346 346 345 341 337 337 337 339 335 338 342
344 345 345 342 345 344 347 347 351 343 342 342 342 342 341 341 342 344 344 343 344 344 342 342 342 342 343 344 345 346 348 344 345 344 339 342 342 340 337 339 337 338 338
345 345 346 345 345 347 345 349 350 346 343 343 342 344 343 342 341 343 344 343 344 345 345 345 346 345 346 348 350 350 349 344 345 343 343 344 342 340 338 338 339 338 338
342 344 346 343 344 347 348 350 349 344 344 348 347 344 343 343 341 342 343 343 344 345 344 344 344 345 345 346 350 351 345 344 344 344 345 343 339 338 337 338 339 343 339
344 346 347 338 345 347 349 351 349 347 345 348 349 346 340 342 344 344 344 343 344 344 345 346 345 344 345 347 349 347 344 344 344 344 345 344 344 342 338 340 345 341 339
346 346 347 337 344 346 347 348 350 349 349 344 344 348 342 343 345 343 344 345 345 345 345 347 349 349 347 348 351 346 346 345 346 345 345 347 348 347 343 342 345 339 338
348 348 348 341 343 346 347 350 349 348 347 346 348 341 342 343 341 344 343 339 339 344 343 346 346 350 350 349 348 347 347 347 343 345 347 348 348 347 345 342 345 339 338
348 344 347 345 344 343 349 351 350 343 348 347 348 343 342 341 341 342 340 343 340 341 340 340 336 343 345 346 347 347 348 345 346 349 351 350 346 345 344 343 344 342 338
349 350 348 348 343 345 349 350 349 346 345 349 349 343 345 346 340 339 336 335 333 336 342 340 342 345 344 345 347 346 347 347 348 350 347 345 344 344 344 343 343 345 342
350 350 350 350 346 348 350 351 349 348 347 350 351 347 344 345 344 343 341 338 334 336 344 345 343 347 347 346 346 347 346 347 351 349 348 347 346 345 348 349 348 344 345
349 349 349 350 347 345 350 351 352 350 348 351 350 349 349 347 348 346 344 342 342 342 343 346 347 348 348 348 350 347 349 351 350 351 352 350 349 350 349 352 353 348 345
347 347 349 350 349 349 349 351 352 349 350 352 350 349 350 347 347 348 346 346 346 344 341 344 346 349 350 350 352 352 351 351 348 347 346 347 350 351 350 352 352 348 345
348 349 348 349 350 350 350 350 350 351 349 352 351 350 351 349 346 347 349 349 347 346 338 344 349 349 351 350 348 346 346 346 345 345 347 351 350 350 349 349 347 347 347
348 349 349 350 349 349 349 351 351 350 350 351 351 349 349 349 350 349 349 350 351 349 345 347 349 350 351 350 348 345 345 344 345 348 351 351 348 350 347 346 347 348 347
349 350 350 350 349 349 350 350 352 350 348 349 349 349 349 349 350 350 350 348 348 349 348 347 349 348 346 346 346 345 344 348 348 352 352 348 346 350 349 349 346 345 346
350 348 349 348 347 350 349 351 350 351 351 348 350 350 351 350 350 350 349 348 349 348 348 348 345 346 348 347 344 344 347 349 345 347 344 338 344 345 346 348 347 346 348
351 350 345 344 349 351 351 352 351 350 351 352 351 349 349 350 350 351 349 349 349 347 345 345 347 349 349 341 344 346 346 348 346 341 336 333 344 340 337 335 332 331 331
351 350 350 350 350 350 351 351 351 350 350 351 350 349 348 348 349 349 348 348 347 347 348 349 349 348 344 338 342 343 345 345 345 332 331 330 340 339 328 323 319 321 328
349 348 349 351 351 349 349 347 348 348 349 349 348 346 347 347 347 348 347 347 347 348 349 349 342 337 338 340 341 342 340 340 344 327 327 328 328 338 328 323 319 318 333
347 347 347 347 347 347 347 346 346 347 346 344 343 341 340 342 343 345 344 344 344 344 341 336 334 337 337 338 338 336 332 335 323 320 323 329 322 327 329 319 317 317 333
345 346 346 345 345 345 345 344 345 345 343 340 339 338 339 338 340 340 339 335 330 330 332 334 331 328 329 331 332 329 325 326 337 320 319 328 317 318 330 318 313 310 320
341 341 339 339 339 340 341 342 344 344 343 340 337 331 330 333 330 327 328 326 331 327 324 324 322 321 322 322 322 324 322 321 323 316 314 320 311 312 317 317 308 307 308
334 329 332 336 338 340 340 339 339 342 339 330 319 317 318 320 320 318 319 329 330 323 321 319 318 318 317 316 317 317 319 317 316 311 306 315 306 305 309 317 307 306 305